ECMWFFLT1_850_thetae_000.txt.gz
Theta_e
306 305 306 306 306 306 308 310 312 313 314 314 314 314 315 316 316 317 317 317 317 316 318 321 321 317 313 322 330 331 330 331 328 327 327 326 327 325 323 324 326 327 328 328 328 328 327 327 327 326 325 325 325 325 325 325 324 323 322 320 318 317 313
306 305 305 305 306 307 307 308 308 310 311 313 313 313 314 314 315 316 316 316 317 316 316 317 319 320 318 320 327 329 329 329 329 329 328 326 325 325 324 324 325 326 327 327 327 327 327 326 325 326 326 325 325 325 325 325 324 324 324 321 320 321 320
306 306 305 304 305 305 306 307 307 308 309 310 311 312 313 313 314 315 315 315 316 317 316 315 315 318 319 319 322 324 325 326 326 328 329 328 326 326 325 324 324 325 327 327 327 327 327 326 325 325 326 326 326 326 325 325 325 324 325 323 321 322 323
306 306 305 305 304 304 305 305 306 308 309 309 309 309 310 311 312 313 314 314 315 315 316 315 315 315 316 318 320 322 322 323 323 324 325 326 326 326 325 324 324 325 327 327 328 327 327 326 326 326 326 325 326 327 326 325 325 325 325 324 323 323 324
306 306 305 305 305 304 304 304 304 305 306 308 309 310 310 309 310 311 313 314 315 315 315 315 315 314 314 316 320 322 322 323 324 325 324 323 324 326 326 324 324 324 326 327 328 328 328 327 327 327 325 325 325 325 325 325 325 325 325 325 324 323 324
306 306 306 305 305 305 304 304 304 304 304 305 307 308 310 310 310 309 310 312 313 315 316 316 315 314 314 314 317 322 323 323 325 327 327 325 326 327 326 325 326 324 324 326 327 328 328 328 327 327 326 324 324 324 324 326 325 325 325 325 325 324 324
305 305 306 305 305 304 304 304 304 304 305 304 304 304 306 308 310 310 310 310 311 313 314 315 315 315 314 313 314 318 321 323 324 325 326 327 328 328 325 324 326 325 325 326 326 327 328 328 328 327 327 325 324 324 324 325 325 324 325 325 325 325 325
305 305 305 305 305 304 304 305 305 305 304 304 304 304 304 305 306 308 310 310 310 311 312 314 315 315 315 314 314 314 317 320 323 324 325 325 326 327 325 322 321 320 323 326 327 327 328 328 328 328 327 326 324 324 324 324 325 324 325 325 325 326 326
304 305 305 305 305 304 304 304 304 304 304 304 304 304 303 303 304 305 307 309 311 311 311 312 314 315 316 316 315 314 314 315 318 321 323 323 324 324 324 322 320 316 318 325 328 327 328 329 329 328 327 326 326 325 324 324 324 324 324 324 324 325 325
305 305 305 305 305 304 304 304 304 304 304 303 303 303 303 303 303 304 304 306 309 311 311 312 313 314 316 317 317 317 316 314 315 317 320 322 322 322 322 323 323 319 316 320 324 326 328 329 328 327 327 327 326 325 324 324 324 324 324 324 323 323 323
305 305 305 305 304 304 304 304 304 303 303 303 302 302 303 303 303 303 304 305 307 309 310 311 312 313 314 316 317 318 318 317 316 316 318 320 321 322 322 323 324 323 319 317 318 321 325 328 328 328 327 327 326 326 325 324 324 325 324 325 324 323 321
304 304 304 304 304 304 304 304 303 303 302 302 302 302 303 303 303 304 304 305 306 308 310 311 311 312 313 315 316 317 318 319 318 317 317 318 320 321 322 323 324 324 323 321 320 320 322 326 328 328 328 327 326 326 325 324 324 325 325 326 324 323 323
304 304 304 304 303 303 303 303 303 303 303 303 302 302 303 303 303 303 304 305 306 307 309 310 311 311 311 313 315 316 317 318 319 318 317 317 318 319 321 322 323 322 323 324 324 324 324 326 327 328 328 328 326 326 326 325 325 325 326 326 324 322 323
304 304 303 303 302 302 303 304 303 303 303 303 302 302 302 303 303 303 303 304 305 306 307 309 310 311 311 312 313 315 316 317 318 319 318 318 318 319 319 320 322 323 323 324 324 324 327 328 327 327 328 328 326 326 326 325 325 325 326 327 325 323 322
304 303 303 302 301 302 304 304 303 303 303 302 302 302 302 302 303 302 303 303 305 305 306 307 309 310 310 311 313 314 315 317 317 318 318 318 318 319 319 319 320 322 324 325 325 324 325 327 328 327 327 328 327 326 326 326 324 325 327 327 325 324 322
303 303 302 301 301 303 304 304 304 303 303 302 302 302 302 302 302 302 302 303 304 305 305 306 307 309 309 310 312 313 314 315 316 317 318 319 318 319 320 320 319 320 323 325 326 325 325 326 328 328 327 327 328 327 326 326 324 324 327 327 325 325 324
303 302 301 301 303 304 304 304 303 303 303 302 302 302 302 302 302 302 302 302 303 304 305 305 306 307 308 310 311 312 313 314 315 316 317 318 319 319 319 320 320 319 321 322 324 326 326 326 328 328 328 328 328 327 326 326 325 324 326 327 323 323 325
302 301 301 303 304 304 303 303 303 303 302 302 302 302 302 302 302 302 302 302 302 303 304 305 305 306 307 308 310 311 312 313 313 314 316 317 318 319 319 319 320 320 320 320 321 325 327 327 328 328 328 328 328 328 327 326 325 324 326 326 322 321 323
302 302 303 303 303 303 303 303 303 303 303 303 302 302 302 302 302 302 302 302 302 303 304 305 306 306 307 308 309 310 311 312 312 313 315 316 317 318 319 319 319 320 321 320 320 323 326 327 328 328 328 328 328 328 328 327 326 325 325 325 324 323 324
302 302 303 303 303 303 303 303 302 302 303 303 303 302 302 301 301 301 302 302 302 303 304 305 306 307 307 308 308 309 309 310 311 311 313 315 316 317 318 319 319 319 320 320 320 322 324 326 327 328 328 329 328 328 328 328 326 325 325 325 324 324 325
302 303 302 302 302 302 302 302 302 302 302 302 302 302 301 301 300 300 301 302 303 302 302 303 304 306 307 308 308 309 308 309 310 310 312 314 316 316 317 318 319 318 318 319 320 321 322 325 327 329 329 329 328 328 328 328 327 326 325 324 324 325 325
302 302 302 302 302 302 301 302 302 302 302 302 301 301 301 300 300 300 300 301 302 302 302 303 304 305 306 307 308 308 307 307 308 309 310 313 315 316 317 318 319 318 317 317 320 321 321 322 326 329 329 329 329 328 328 328 328 327 325 324 324 325 324
302 302 302 302 302 301 301 301 301 301 302 301 301 301 301 300 300 300 299 300 300 301 301 303 305 306 306 306 306 305 305 305 306 307 309 312 314 316 316 317 318 318 316 315 318 320 320 320 323 327 330 329 329 328 328 328 328 328 326 324 325 325 324
303 302 302 301 301 301 301 301 301 301 301 301 301 301 300 300 300 299 299 299 299 299 300 302 304 305 306 306 305 303 303 304 305 306 308 311 313 315 316 317 318 318 317 314 315 318 319 319 321 325 328 329 329 328 327 328 329 328 326 325 325 327 326
302 302 301 301 301 301 301 301 301 301 300 300 300 300 300 299 299 299 299 299 298 298 299 300 301 303 304 304 303 302 302 303 304 306 308 311 313 315 316 317 318 319 318 315 313 315 317 319 320 322 326 328 328 328 327 328 328 328 327 325 325 327 327
302 301 301 301 300 300 300 300 300 300 299 299 299 299 299 299 299 298 298 298 298 298 298 299 299 300 301 302 301 301 300 301 302 304 307 310 313 315 316 317 318 319 318 316 314 314 315 317 319 321 325 327 328 328 328 328 328 327 327 327 326 327 327
301 301 301 300 300 299 299 299 299 299 298 298 298 298 298 298 298 298 298 298 298 298 298 298 298 298 299 300 299 299 299 300 301 302 304 308 312 315 316 317 318 319 318 316 317 316 315 316 318 319 322 325 327 328 328 327 327 327 327 327 327 327 326
300 300 300 300 299 299 299 299 298 298 297 297 297 297 297 297 297 297 297 297 297 297 297 297 298 298 298 298 298 298 299 299 300 301 303 305 309 313 315 316 317 319 319 317 318 318 316 316 317 317 319 324 327 327 327 327 327 327 326 326 327 327 326
300 300 300 299 299 299 299 298 298 297 297 296 296 296 296 296 296 296 297 297 297 297 297 297 297 298 298 298 298 298 298 299 299 301 303 304 307 311 314 316 317 318 319 318 318 318 316 317 318 317 318 323 326 326 326 326 327 326 326 326 327 326 325
300 300 299 299 299 299 298 298 297 297 296 296 296 296 295 295 295 296 296 296 296 296 297 297 298 298 298 298 299 298 299 299 300 301 302 304 306 308 312 316 317 318 319 319 319 318 316 317 319 318 317 320 324 325 325 326 326 326 326 326 326 325 325
299 299 299 299 298 298 298 297 297 297 297 296 296 295 295 295 295 295 295 295 295 296 296 297 297 298 298 299 300 300 299 299 300 301 302 304 305 307 310 314 317 318 318 319 319 319 316 316 317 317 316 319 323 325 324 325 325 325 326 325 324 324 324
299 299 299 298 298 297 297 297 297 297 296 296 296 295 295 294 294 294 294 295 295 295 296 297 298 298 299 299 300 300 300 300 301 302 303 305 306 308 309 312 315 317 318 319 319 318 317 316 316 316 315 318 322 324 324 324 325 325 325 324 324 324 325
299 299 298 298 297 297 297 297 296 296 296 295 295 295 294 294 294 294 294 295 295 295 296 297 298 298 299 300 300 300 300 300 301 302 304 306 307 308 310 312 315 316 317 318 319 319 317 315 314 313 314 317 321 323 324 324 324 324 325 325 324 324 325
299 299 298 298 297 296 296 296 296 296 295 295 294 294 294 293 293 294 294 295 295 295 296 297 298 299 299 300 301 302 301 301 302 303 305 307 308 309 311 313 315 316 316 317 318 318 318 317 314 313 313 316 320 323 324 324 324 324 324 325 324 324 324
298 298 298 297 297 296 296 295 295 295 295 294 294 293 293 293 293 293 294 294 295 296 297 298 299 300 300 300 302 303 304 303 304 304 306 308 309 310 312 314 315 316 316 316 316 318 318 318 316 313 313 316 320 323 323 324 323 323 324 324 323 323 321
298 297 297 297 296 296 295 295 295 294 294 294 293 293 293 293 293 293 294 295 295 296 298 299 300 302 302 303 304 305 305 306 306 306 307 309 310 311 312 314 314 315 316 316 317 318 317 316 316 315 315 317 320 321 322 323 322 322 323 322 321 320 319
297 297 297 296 296 295 295 295 294 294 293 293 292 292 292 292 293 293 294 294 295 297 298 300 301 303 305 306 306 306 307 308 308 308 308 309 310 311 312 313 314 315 315 316 316 316 316 316 316 317 318 319 320 321 321 321 321 321 321 320 319 318 316

ECMWFFLT1_850_thetae_003.txt.gz
Theta_e
310 308 307 307 306 305 305 305 307 311 314 315 316 316 316 317 318 318 318 319 319 320 321 322 324 325 326 324 319 320 323 326 329 332 332 328 327 328 328 327 327 326 326 327 328 329 328 329 330 329 329 328 327 327 326 326 325 325 325 324 324 324 325
307 307 309 308 306 306 305 305 305 306 309 311 313 315 315 316 317 317 317 318 318 319 319 320 321 323 324 325 323 323 323 324 326 328 328 327 327 329 328 327 327 326 326 326 327 328 329 328 329 330 329 328 327 327 326 325 325 325 325 325 324 324 325
307 307 308 307 306 306 306 305 305 304 306 307 308 310 311 313 314 315 316 317 317 318 318 319 320 321 322 322 322 324 325 324 324 326 327 328 329 330 328 327 327 326 326 325 326 327 328 328 328 328 329 329 328 327 326 326 326 326 325 325 325 324 324
307 307 307 307 306 306 306 305 305 305 305 305 305 306 307 307 308 310 313 315 316 317 317 318 319 319 320 320 321 322 324 324 324 325 328 331 331 330 329 327 327 327 326 325 325 326 327 328 328 328 328 327 328 328 327 327 326 326 325 325 325 324 324
307 307 307 307 306 306 306 306 305 305 305 305 305 306 306 305 304 305 307 310 313 315 316 317 318 319 320 320 321 321 322 324 325 325 327 329 329 330 329 328 327 327 326 325 325 325 326 327 328 329 328 327 327 328 328 328 327 326 326 325 325 324 324
307 306 306 306 306 306 306 306 305 305 305 305 305 305 305 305 304 304 304 305 308 311 314 314 315 317 318 320 321 321 321 322 324 325 326 326 327 328 328 329 328 327 326 326 325 324 324 325 327 328 329 328 327 327 326 327 327 326 326 325 325 324 324
307 306 306 306 306 306 306 306 305 305 305 305 305 305 305 305 305 304 304 304 304 306 309 311 312 313 316 317 319 320 320 320 321 324 325 325 325 326 327 327 327 327 326 326 325 324 323 325 326 327 328 328 328 327 325 326 327 326 326 325 325 324 324
307 306 306 306 306 306 306 306 305 305 305 305 305 305 305 305 305 304 304 304 303 303 305 307 310 311 312 313 316 318 319 319 320 321 324 324 324 325 326 326 327 327 326 325 325 325 325 325 325 326 327 327 328 328 327 326 327 327 325 325 325 324 324
306 306 306 306 306 306 305 306 305 305 305 305 305 304 305 305 304 304 304 303 303 303 303 304 307 309 310 311 314 316 318 318 319 319 321 323 324 324 325 325 326 327 327 325 324 323 324 325 325 325 325 326 327 328 328 325 325 326 325 324 325 324 325
306 306 305 305 305 305 306 305 305 305 305 304 304 304 304 304 303 304 303 302 303 304 304 305 304 307 310 312 313 314 316 318 319 319 319 321 322 323 324 324 325 326 328 327 325 324 325 325 324 323 325 325 326 327 327 326 324 325 325 324 324 325 326
306 306 306 305 305 305 305 305 305 305 304 304 304 304 305 304 304 305 304 304 305 306 306 307 307 306 308 311 312 313 315 317 319 320 320 320 320 321 322 324 325 326 326 327 326 326 325 323 322 323 326 326 325 327 327 327 326 324 325 325 325 325 325
306 306 305 305 305 305 305 305 305 304 304 304 305 306 308 306 305 306 306 305 306 307 307 307 307 307 308 309 311 312 313 316 318 319 320 321 321 320 320 321 323 324 324 325 326 326 326 323 320 321 324 325 326 327 326 327 327 326 325 325 325 325 324
306 306 306 306 305 305 305 305 304 304 305 306 306 307 307 306 306 306 306 306 306 306 306 306 306 307 307 308 310 311 312 314 316 318 319 320 321 321 320 320 321 322 323 325 326 326 326 325 322 320 320 320 323 327 327 327 327 327 325 324 325 325 324
306 306 306 306 306 305 305 305 304 305 306 307 307 306 306 305 306 306 306 305 306 305 305 306 306 306 307 307 309 310 312 313 314 317 318 320 320 321 321 321 321 322 323 325 326 325 325 325 323 321 319 317 319 325 327 327 327 326 326 325 325 325 325
306 306 306 306 305 305 305 304 305 306 307 307 306 306 305 305 305 305 305 305 305 305 305 305 305 306 306 306 307 309 310 312 313 315 317 319 319 320 321 321 321 322 323 324 325 324 325 326 324 321 319 315 315 320 325 327 327 326 326 326 327 326 325
306 306 306 305 305 305 305 305 306 307 306 306 306 306 305 305 305 304 304 304 304 305 305 305 305 305 305 306 306 307 309 310 312 313 315 317 319 319 320 321 321 321 322 323 324 324 324 325 325 323 321 317 314 314 318 324 327 327 326 326 327 326 325
306 306 305 305 305 305 305 306 307 307 306 306 306 305 305 305 305 304 304 304 304 304 304 305 304 304 305 305 306 306 307 309 311 312 313 315 317 318 319 320 320 321 321 322 323 324 324 324 325 325 325 324 321 317 315 318 324 326 326 325 327 326 325
306 306 305 304 304 305 306 306 306 306 306 306 305 305 305 304 304 304 304 304 304 304 304 304 304 304 304 305 305 306 306 307 309 311 313 314 315 316 318 319 320 320 321 321 322 323 324 324 324 325 326 325 325 324 322 320 322 325 326 326 326 325 324
306 305 304 305 305 305 305 305 306 306 305 305 305 305 304 304 305 304 304 304 304 304 304 304 304 304 304 304 305 305 306 306 308 309 312 314 315 315 316 317 319 320 321 321 321 322 323 323 324 324 324 325 325 327 327 325 325 327 326 326 327 324 323
306 304 304 304 304 305 305 305 305 305 305 305 304 304 304 304 305 304 304 304 304 304 304 304 303 303 303 304 304 304 305 306 307 308 310 312 314 315 316 316 317 318 319 320 321 321 322 323 323 323 324 326 327 327 328 328 328 328 326 327 327 325 323
305 304 304 304 304 305 305 305 305 304 304 304 304 304 304 304 304 304 304 304 304 304 303 303 303 303 303 303 303 304 304 305 305 306 308 310 311 314 315 316 316 317 318 319 320 321 322 322 323 323 325 326 326 326 327 328 328 328 327 327 327 325 323
305 305 305 305 305 305 305 304 304 303 303 303 303 304 304 304 304 303 303 303 303 303 303 303 303 303 303 303 303 304 304 304 304 305 305 307 309 311 313 314 315 316 317 318 319 320 321 322 322 323 325 326 324 324 326 328 328 328 327 327 327 325 323
306 306 306 305 305 305 304 303 303 303 303 303 303 303 303 303 303 303 303 303 303 303 303 303 303 303 303 303 303 303 303 304 304 304 304 305 307 309 311 313 314 315 316 316 317 319 320 321 322 322 324 325 324 323 325 328 329 328 327 327 326 324 321
306 306 306 305 304 304 303 303 303 303 303 302 302 303 302 303 302 303 303 303 303 302 302 302 302 302 303 302 302 302 302 302 303 303 304 305 306 307 308 310 312 313 315 315 316 317 318 320 321 321 322 324 324 324 325 326 327 328 328 327 326 323 321
306 306 305 305 304 303 303 302 302 302 302 302 301 301 301 301 301 302 302 302 302 302 302 302 301 301 301 301 301 300 300 301 301 302 302 304 305 306 307 309 310 312 314 315 316 317 317 318 319 320 321 322 322 323 324 325 327 328 328 327 326 324 322
305 305 304 304 303 303 302 302 301 301 301 301 300 300 300 300 300 300 300 300 301 301 301 301 301 300 300 300 300 299 299 299 299 300 300 302 303 305 307 308 309 310 312 314 316 317 318 318 318 318 319 320 321 321 321 323 326 327 328 327 327 325 323
305 304 304 303 302 302 301 301 301 301 300 300 300 300 300 299 299 299 299 299 299 299 299 300 300 300 299 299 299 299 299 299 299 299 299 300 301 303 305 307 309 310 312 314 316 317 318 319 319 319 318 318 320 320 319 320 322 325 327 328 328 326 323
304 304 303 302 302 302 301 301 301 300 300 299 299 299 299 299 299 298 298 298 298 298 298 299 299 299 299 298 298 298 298 298 298 298 299 299 300 301 302 305 307 309 312 314 316 317 318 319 320 321 319 318 318 319 319 318 319 322 324 327 328 326 324
304 303 303 302 302 301 301 301 300 300 299 299 299 299 299 299 298 298 298 298 298 298 298 298 298 298 298 298 298 298 298 298 298 298 298 298 299 300 301 302 305 308 311 313 315 317 318 319 320 320 321 320 318 318 318 317 317 318 321 324 326 326 325
303 303 302 302 301 301 301 300 299 299 299 299 299 299 298 298 298 298 298 298 298 297 297 297 297 297 297 297 297 297 297 297 298 298 298 298 299 299 300 301 302 305 308 311 315 316 317 319 319 319 320 321 321 320 319 318 317 317 318 323 326 326 326
303 302 302 301 301 301 300 300 299 299 299 299 298 298 298 298 298 297 297 297 297 297 297 297 296 296 296 296 296 297 297 297 297 297 298 298 299 299 299 300 301 303 306 309 313 316 317 319 319 320 320 321 322 322 321 320 320 318 319 323 326 326 325
302 302 301 301 301 300 300 299 299 298 298 298 298 297 297 297 297 297 296 296 296 296 296 296 296 296 296 295 295 296 296 297 297 297 298 298 299 299 299 300 301 303 305 308 311 315 317 318 319 319 320 321 322 323 322 322 322 321 321 323 325 325 324
302 301 301 301 300 300 299 298 298 298 298 297 297 297 297 296 296 296 296 295 295 295 295 295 295 295 296 296 296 296 296 296 297 297 297 298 299 299 300 300 301 303 305 307 310 314 317 318 319 319 320 321 322 323 322 322 322 321 320 321 323 325 325
301 301 301 300 299 299 298 298 298 298 297 297 296 296 296 296 295 295 295 294 294 294 295 295 295 295 295 296 296 296 296 296 296 297 298 298 299 300 300 301 302 303 304 306 308 312 316 318 319 319 319 320 321 321 320 321 321 321 320 320 322 324 324
301 301 300 299 299 298 298 298 297 297 296 296 296 295 295 295 295 294 294 294 294 294 294 295 295 295 296 296 296 296 296 296 296 297 298 298 299 300 301 302 303 304 305 306 307 311 315 318 319 319 319 320 320 321 320 319 320 321 320 321 323 323 324
301 300 300 299 299 298 298 297 297 297 296 296 295 294 294 294 294 294 293 293 293 293 294 294 295 295 296 296 296 296 297 297 297 297 298 299 299 300 301 302 303 304 306 307 308 310 313 317 319 319 319 320 320 320 320 319 319 320 319 321 322 323 323
300 300 299 299 298 298 298 297 297 296 296 295 294 294 294 293 293 293 293 293 293 293 293 294 294 295 295 296 296 297 297 298 299 298 299 299 299 300 301 302 303 305 308 310 310 310 312 316 318 318 319 320 320 320 320 319 319 319 319 320 321 321 322

ECMWFFLT1_850_thetae_006.txt.gz
Theta_e
315 312 309 309 308 307 307 307 306 305 305 308 309 308 307 309 312 314 315 316 316 317 318 320 323 324 324 325 327 326 325 323 322 325 328 331 332 332 332 331 330 329 329 329 330 329 328 329 330 330 329 328 327 327 327 327 327 327 327 326 326 326 326
314 311 312 312 309 307 307 307 306 306 306 305 306 306 305 305 306 309 311 313 315 316 316 317 320 321 322 323 324 326 326 325 323 322 323 327 330 332 332 331 330 329 327 327 329 329 328 327 329 330 329 329 328 328 328 328 327 327 326 326 326 326 325
313 311 313 313 309 307 307 307 306 306 306 306 306 306 305 305 304 304 305 307 310 312 314 315 316 318 320 321 322 324 325 326 326 325 323 323 326 329 331 332 331 329 327 326 326 328 328 327 328 329 329 330 330 329 328 328 328 327 326 326 325 325 325
312 310 310 310 308 307 307 307 307 306 306 306 305 305 306 305 305 305 304 304 304 306 308 310 312 315 318 319 319 320 322 324 326 326 326 325 325 326 327 329 330 329 328 327 326 327 328 327 327 328 329 329 330 329 329 328 328 327 326 326 326 325 325
313 311 309 309 308 307 307 306 306 307 308 308 308 308 309 307 305 305 305 305 305 304 304 305 307 310 314 316 317 317 319 321 323 324 325 326 325 325 326 326 327 328 328 328 328 328 328 327 327 327 328 328 328 328 329 329 328 328 327 326 325 326 325
313 311 310 309 308 307 307 307 307 307 308 309 310 309 308 307 305 305 305 305 305 304 304 304 304 305 307 311 315 316 318 320 321 322 323 324 325 325 325 325 325 327 328 329 329 329 327 327 327 326 326 326 326 327 328 328 328 328 327 326 326 326 326
313 312 311 309 308 308 307 307 307 307 306 307 307 306 306 306 305 305 305 305 305 304 304 304 304 304 304 306 311 315 317 317 318 319 320 322 323 324 325 325 326 326 327 328 330 330 329 327 327 327 326 326 325 326 326 327 327 328 328 327 327 326 325
312 312 311 309 308 308 307 307 306 306 306 306 306 306 306 306 305 305 305 305 305 304 304 303 303 303 303 303 306 311 314 315 315 316 318 319 321 323 324 325 326 326 327 328 328 329 329 328 328 327 326 325 325 325 324 325 326 327 328 328 327 326 325
312 312 310 309 308 308 307 307 306 306 306 306 306 306 306 306 305 305 305 305 306 306 305 305 303 302 302 303 303 305 310 312 312 313 316 318 319 320 322 323 325 327 327 327 327 327 328 329 328 327 326 325 325 325 324 325 325 326 327 327 327 326 325
312 311 310 309 308 308 307 307 307 307 306 306 306 306 306 306 305 305 305 306 307 307 306 306 305 303 303 304 303 304 306 309 311 311 313 317 318 319 320 321 323 325 325 326 326 327 327 327 328 328 327 326 326 325 325 325 326 325 325 326 327 326 325
312 311 309 309 308 308 307 307 306 307 306 306 306 306 305 305 305 306 306 306 307 307 307 307 306 305 305 306 305 305 306 308 310 310 311 314 317 319 319 320 321 322 322 324 325 326 327 327 327 327 327 326 326 326 326 326 326 325 325 325 326 326 325
311 311 309 308 308 308 307 307 307 306 306 306 306 306 305 306 306 306 306 306 307 307 308 308 307 306 305 306 306 305 305 306 309 310 310 312 314 317 319 319 320 320 320 321 323 325 326 326 326 326 326 326 326 325 325 325 326 325 324 324 326 326 325
310 310 310 309 308 308 307 307 307 306 306 306 306 306 305 306 306 306 306 305 306 307 307 307 307 306 306 306 306 305 304 304 306 308 310 311 313 315 318 319 320 321 320 320 320 322 323 324 325 326 326 326 327 325 324 325 325 325 323 324 325 325 326
310 310 309 309 308 307 307 307 307 307 306 306 306 306 306 306 305 305 306 305 305 306 306 306 306 306 306 306 306 306 306 305 304 305 308 311 312 314 316 319 320 321 322 321 320 320 320 322 324 326 326 326 327 327 325 325 326 325 324 323 325 325 326
310 310 309 308 308 307 307 307 306 306 306 305 306 306 306 306 306 305 306 306 305 305 306 306 305 306 306 305 306 306 306 306 305 305 306 309 311 313 315 317 319 320 321 322 322 321 320 320 322 325 325 325 326 327 326 326 326 326 324 323 325 326 326
310 309 309 308 307 307 307 307 306 306 306 306 306 307 307 307 306 306 306 306 306 306 305 305 305 305 305 305 305 305 305 305 306 306 306 306 308 311 313 315 317 319 320 321 322 322 321 321 321 323 324 325 326 327 327 327 327 326 325 324 324 325 327
310 310 308 308 307 307 307 306 305 306 306 306 307 307 307 307 306 306 306 305 306 305 305 305 305 305 305 305 305 305 305 305 305 306 306 306 307 309 311 312 314 317 320 320 321 321 322 322 322 322 324 325 326 327 327 327 327 326 325 324 322 322 324
310 309 309 308 307 306 306 306 306 307 307 307 307 307 307 306 306 306 306 305 305 305 305 305 305 305 305 305 305 305 305 305 305 306 306 306 307 308 310 311 313 314 317 319 320 321 322 322 322 322 322 323 325 327 327 327 327 327 326 325 323 321 323
310 310 309 308 307 306 306 306 306 307 307 306 306 306 306 306 306 305 305 305 305 305 305 305 305 305 305 305 305 305 305 304 305 305 306 307 307 307 308 310 312 313 314 316 318 320 321 322 322 322 322 322 324 325 326 327 327 327 327 325 323 322 323
310 310 309 308 307 307 306 306 306 306 306 306 306 306 305 305 305 305 305 305 305 305 305 305 305 305 305 305 305 304 304 304 304 304 305 306 307 307 307 308 310 311 313 314 316 317 319 321 321 322 322 322 322 324 325 326 326 327 328 327 325 322 322
310 309 309 308 307 307 306 306 307 306 306 305 305 305 304 304 304 304 304 304 304 304 304 304 304 304 304 304 304 304 304 304 304 304 304 305 306 307 307 307 308 309 311 312 314 315 317 318 320 321 322 322 322 323 323 324 325 327 328 328 326 325 323
311 309 308 307 306 306 306 306 306 305 304 304 304 304 304 304 304 304 304 304 304 304 304 304 304 304 304 304 304 304 304 304 304 304 304 304 304 305 306 307 308 308 309 310 312 314 315 316 318 319 320 322 322 323 323 323 325 325 327 328 328 327 324
309 308 307 306 306 307 306 306 305 304 304 304 304 303 303 303 303 303 303 303 303 303 303 304 303 303 303 303 303 303 303 303 303 303 304 304 304 304 304 305 306 307 308 309 310 312 314 315 316 316 318 319 321 322 323 324 325 326 326 327 327 327 327
309 307 306 307 307 306 305 305 304 304 304 304 303 303 303 302 302 302 302 302 302 302 302 303 303 303 303 303 303 303 303 303 302 302 302 302 303 303 303 304 304 305 307 308 309 310 312 314 314 315 316 316 318 321 322 322 323 324 326 326 326 327 328
308 307 307 307 306 306 305 304 304 303 303 303 302 302 302 301 301 301 301 301 301 301 301 301 301 301 302 302 302 302 302 302 302 302 301 301 301 301 301 302 303 303 305 306 307 309 310 312 313 314 315 316 316 319 321 322 321 322 323 325 326 327 327
308 308 307 307 306 305 304 303 303 303 303 302 302 302 301 301 301 300 300 300 300 300 300 300 300 300 300 301 301 301 301 301 301 301 301 301 300 300 300 300 301 301 303 304 305 307 308 310 311 313 314 315 316 317 319 320 321 321 321 322 325 326 326
308 307 306 306 305 304 303 302 302 302 302 302 302 301 301 300 300 300 299 299 299 299 299 299 299 299 299 299 299 299 300 300 300 300 300 300 300 300 300 300 300 300 301 302 303 306 307 309 310 312 313 314 315 316 317 317 319 321 321 321 322 324 325
307 306 305 305 304 303 303 302 302 302 302 302 301 301 301 300 299 299 299 299 299 299 299 299 298 298 298 298 298 298 298 298 299 299 299 299 299 299 299 299 299 299 300 300 301 303 306 308 310 312 314 315 315 316 316 316 317 319 321 321 321 322 323
306 305 305 304 304 303 303 303 302 302 302 301 301 300 300 299 299 299 299 299 299 299 299 299 298 298 298 298 298 298 298 298 298 298 298 298 298 298 298 298 299 299 299 299 300 301 304 307 309 312 314 316 317 317 317 316 315 317 319 321 321 321 321
305 305 304 304 304 303 303 302 302 302 301 301 300 300 299 299 298 299 299 298 298 298 298 298 298 297 297 297 297 297 297 297 297 297 297 297 297 297 297 298 298 299 299 299 299 299 301 304 308 311 313 314 316 317 317 317 317 318 318 318 319 320 320
305 304 304 304 303 303 302 302 301 301 300 300 299 299 299 298 298 298 298 298 298 297 297 297 297 296 296 296 296 296 296 296 296 296 296 296 296 296 297 297 298 298 298 299 299 299 299 301 304 309 312 313 314 316 318 318 319 320 319 319 319 319 320
303 303 303 303 303 302 302 301 300 300 299 299 299 298 298 298 297 297 297 297 297 296 296 296 296 296 295 295 295 295 295 295 295 296 296 296 296 296 296 297 297 297 298 298 298 299 299 299 301 305 310 311 312 315 317 318 319 320 321 321 321 320 319
304 303 303 302 302 301 301 300 299 299 299 299 298 297 297 297 297 297 296 296 296 295 295 295 295 295 295 294 294 294 294 295 295 295 295 296 296 296 296 296 297 297 297 298 298 298 298 299 300 303 307 310 311 313 316 318 319 320 320 321 322 321 320
303 302 302 301 301 301 300 300 299 299 298 298 298 297 296 296 296 296 295 295 295 294 294 294 294 294 294 294 294 294 294 294 295 295 295 296 296 296 296 296 296 297 297 298 298 298 298 299 299 300 304 309 312 313 315 317 318 319 320 320 322 322 321
302 302 301 301 301 301 300 299 299 298 298 297 297 296 296 296 296 295 295 295 294 294 294 293 293 293 294 294 294 294 294 294 294 295 295 296 296 296 296 296 296 297 297 297 298 298 299 299 299 300 302 307 312 314 314 315 316 318 320 320 321 323 322
302 301 301 301 300 300 299 299 299 298 297 297 296 295 295 295 295 295 294 294 294 293 293 293 293 293 294 294 294 294 294 294 294 294 294 295 295 295 296 296 296 296 297 297 298 298 299 299 300 300 302 305 310 314 313 312 313 317 320 321 321 322 322
301 300 300 300 299 299 299 298 298 298 297 296 296 295 295 294 294 294 294 293 293 293 293 292 293 293 294 294 294 294 294 294 294 294 294 294 295 295 295 296 296 296 296 297 297 298 299 300 300 302 303 305 308 312 312 310 312 315 319 320 321 321 322

ECMWFFLT1_850_thetae_009.txt.gz
Theta_e
315 314 312 310 309 308 308 308 307 307 307 306 306 305 305 305 306 307 308 309 309 311 312 313 317 321 323 323 324 324 324 324 325 324 323 323 326 328 329 331 332 331 329 328 328 329 329 330 329 329 329 329 328 327 327 328 327 326 325 326 326 325 325
313 313 312 310 310 309 308 308 308 307 307 306 306 306 306 305 305 305 305 305 307 308 309 311 312 316 320 322 323 324 323 323 324 325 325 324 324 324 325 328 330 331 331 330 330 330 329 329 329 329 328 328 329 328 328 328 327 327 326 326 326 326 326
313 313 312 311 310 309 308 308 307 307 307 307 306 307 306 306 306 306 305 305 305 305 306 307 308 311 315 319 321 322 322 323 323 324 325 325 325 325 324 324 326 329 331 332 331 331 331 329 329 329 328 328 329 329 329 328 328 328 327 326 327 326 326
314 313 312 311 311 309 308 308 308 307 307 307 307 307 307 307 306 306 306 306 306 305 305 305 305 306 308 311 315 317 318 319 321 323 324 325 325 325 326 325 324 325 327 330 331 332 331 329 328 328 328 328 329 329 330 329 328 328 327 327 327 327 326
314 314 313 311 310 309 309 308 307 307 307 307 307 307 307 307 306 306 306 306 306 306 305 305 305 304 305 305 307 310 312 315 317 319 321 323 323 324 325 325 325 325 325 326 328 330 330 329 328 327 327 327 327 328 329 330 330 328 328 328 328 327 327
314 314 313 311 310 310 308 307 307 307 307 307 307 307 307 307 306 306 306 306 306 305 305 305 305 305 304 304 304 305 306 309 312 315 316 319 321 323 324 324 325 325 326 325 326 328 329 330 329 327 326 327 328 327 328 329 330 329 329 329 328 328 327
314 314 313 311 310 310 308 307 308 307 307 307 307 307 306 306 306 306 306 306 306 305 305 305 305 305 304 304 304 303 304 305 308 312 314 316 318 321 322 322 323 324 325 325 325 326 326 327 328 328 328 329 328 327 327 328 328 328 328 328 328 328 328
313 314 313 311 310 310 309 308 308 307 307 307 307 306 306 306 306 306 306 306 305 305 305 305 305 305 304 304 303 303 303 302 304 309 312 314 315 317 318 319 321 322 323 324 325 326 326 326 326 327 328 329 328 328 328 327 327 327 327 327 327 328 328
312 312 313 312 311 310 309 309 308 308 307 307 307 306 306 306 306 306 306 306 305 305 305 305 306 306 305 304 303 302 302 302 302 305 309 312 313 314 315 316 317 320 321 322 323 325 325 326 326 326 327 329 328 327 327 327 327 327 327 327 326 327 327
311 311 311 312 311 310 310 309 309 308 307 307 307 306 306 306 306 306 306 305 305 305 305 305 306 306 306 305 304 303 303 302 302 303 305 309 311 312 312 312 314 316 318 320 321 323 324 325 326 327 327 328 327 326 326 327 327 327 328 327 326 326 325
310 310 310 311 311 310 310 309 309 308 307 307 307 307 307 306 306 306 305 305 305 305 305 305 305 306 307 306 305 305 304 303 303 303 303 305 307 309 310 310 312 314 316 317 319 320 321 323 325 326 327 327 328 327 327 327 327 327 328 328 327 326 325
310 310 309 310 310 310 310 310 309 308 307 307 307 306 306 306 306 305 305 305 305 305 305 305 305 305 306 306 306 305 305 304 304 303 303 303 304 306 308 309 311 314 316 317 318 319 319 320 321 323 325 326 326 326 327 327 327 327 326 326 326 327 327
310 310 309 309 309 309 310 309 309 308 307 307 307 307 306 305 305 305 305 305 305 305 305 305 305 305 305 305 305 305 305 305 305 304 303 303 303 304 306 308 310 312 315 318 319 319 319 319 319 320 321 323 325 325 326 327 327 326 324 325 325 325 326
310 310 309 309 309 309 309 309 308 308 307 307 307 306 305 305 305 305 306 306 305 305 305 305 305 305 305 305 305 305 305 305 305 304 304 303 303 303 304 306 308 310 313 316 319 319 319 319 320 319 319 320 322 323 325 326 327 326 324 324 325 325 325
310 310 309 309 309 309 309 309 308 307 307 307 306 305 305 304 305 305 305 306 306 305 305 305 305 306 305 305 305 305 304 304 304 304 304 304 304 304 304 304 306 309 311 314 317 319 320 320 320 319 319 319 320 319 322 324 326 326 325 324 325 325 326
310 310 309 309 309 309 309 308 308 307 307 306 306 305 304 304 305 305 305 305 306 306 305 305 305 305 305 305 305 304 304 304 304 304 304 304 305 305 305 305 304 305 309 312 314 316 319 320 320 320 319 320 319 319 319 321 323 325 326 325 325 325 326
310 310 309 309 309 308 308 308 308 307 306 305 305 304 304 304 305 305 305 306 306 306 305 305 305 305 305 305 305 304 304 304 304 304 304 304 305 305 305 306 306 305 306 308 311 313 316 319 320 320 320 321 321 320 319 320 321 323 324 325 324 325 326
310 309 309 309 309 308 308 308 307 306 305 304 304 304 304 304 304 305 305 305 305 305 305 305 305 305 305 304 304 304 304 304 304 304 304 304 304 304 304 304 306 307 306 306 307 309 313 316 319 320 320 321 322 322 321 321 321 321 323 324 325 326 326
310 310 309 309 309 309 308 307 306 305 304 304 304 304 304 304 304 304 304 304 305 305 305 305 305 305 304 304 304 304 304 304 304 304 304 304 303 304 303 303 304 306 306 306 307 307 309 313 316 318 319 320 321 321 322 322 322 322 323 323 324 326 327
310 310 310 309 309 308 308 306 305 304 304 304 304 304 304 304 304 303 303 304 304 304 304 304 304 304 304 304 304 304 304 304 304 303 303 303 303 303 303 303 303 304 304 305 306 307 308 310 312 315 317 318 319 319 320 321 322 323 323 322 322 323 326
311 310 310 309 309 308 306 305 304 304 304 304 303 304 303 303 303 303 303 303 303 303 303 303 303 303 303 303 303 303 303 303 303 303 303 303 303 303 303 303 303 303 303 304 304 305 307 308 309 312 314 316 316 317 318 319 321 322 324 324 322 321 324
311 311 310 310 309 307 305 304 304 304 304 303 303 303 303 303 303 303 303 303 302 302 302 302 302 302 302 302 302 303 303 303 303 303 303 303 302 303 303 303 303 303 303 303 303 304 305 305 306 308 312 314 315 315 317 318 319 320 322 324 324 323 323
312 311 310 309 308 307 305 304 304 304 304 303 303 303 303 303 303 303 302 302 302 302 302 301 300 300 300 301 301 302 302 302 302 302 303 302 302 302 302 302 302 302 302 303 303 303 303 304 304 305 307 310 313 314 315 317 318 319 319 321 324 324 324
312 311 310 310 308 306 305 304 304 304 304 303 303 303 303 303 303 302 302 302 302 301 301 301 300 299 299 299 300 300 301 301 301 301 302 302 301 302 301 301 301 301 301 301 301 301 301 302 303 304 305 307 309 312 313 314 316 317 317 318 320 322 323
312 311 310 309 308 305 305 305 304 304 304 304 303 303 302 302 302 302 302 302 301 301 301 300 299 298 299 299 299 299 299 299 299 299 300 300 300 300 300 300 300 300 300 300 300 300 300 300 301 302 304 305 306 309 311 312 313 315 316 316 317 319 321
311 310 309 308 306 306 305 305 304 304 304 303 302 302 302 302 302 302 301 301 301 301 300 299 298 298 299 299 298 298 298 298 298 298 298 299 299 299 299 299 299 299 299 299 299 299 300 299 299 300 302 303 305 306 308 310 312 313 315 315 315 317 318
310 309 308 307 306 306 305 305 304 304 303 302 302 302 302 302 302 301 301 301 300 300 299 298 298 298 298 298 298 298 298 298 298 297 297 297 297 297 297 297 298 298 298 298 298 299 299 299 299 299 300 301 303 305 307 308 310 312 313 314 314 316 317
309 309 308 306 306 305 305 305 304 304 303 303 302 302 302 302 301 301 300 300 299 299 298 297 298 298 298 298 298 298 298 298 297 297 297 297 297 297 296 297 297 297 297 297 297 298 298 298 298 298 299 299 301 304 307 308 310 311 312 313 313 314 315
309 308 306 305 305 305 305 304 304 303 303 303 302 302 301 301 300 300 299 299 298 297 297 297 297 297 297 297 297 297 297 297 296 296 296 296 296 295 295 295 295 296 296 296 297 297 297 297 298 298 298 298 299 302 304 307 309 311 312 314 314 314 314
308 306 305 304 305 305 304 304 303 303 303 302 302 301 300 299 299 299 298 297 296 296 296 296 296 296 296 296 296 296 296 296 295 295 295 295 294 294 294 294 294 295 295 296 296 296 297 297 297 297 297 298 298 300 302 305 308 311 313 314 315 315 315
306 304 304 305 305 304 304 303 303 303 302 301 300 299 298 298 298 297 296 296 295 295 295 295 295 295 295 295 294 295 295 295 294 294 294 294 294 294 294 294 294 295 295 295 295 296 296 297 297 297 297 298 297 298 300 302 305 309 312 314 315 316 316
304 304 304 304 304 303 303 302 302 301 300 299 298 298 298 297 296 295 294 294 294 294 294 294 294 294 294 294 294 294 294 294 294 293 294 294 294 294 294 294 295 295 295 295 295 295 296 296 296 297 297 297 298 298 299 300 302 306 310 312 314 316 317
303 303 303 303 302 302 301 300 300 299 299 298 298 298 297 295 294 294 294 294 293 294 294 294 294 294 294 293 293 293 293 293 293 293 293 293 293 294 294 294 294 294 294 294 295 295 296 296 296 296 297 297 297 297 298 299 300 303 306 310 313 315 317
303 303 303 301 300 300 299 299 299 299 299 299 299 298 296 294 294 294 294 293 293 293 294 294 294 294 293 293 293 292 292 292 292 292 293 293 293 293 294 294 294 294 294 294 294 295 295 296 296 296 296 297 297 297 297 298 299 301 304 308 312 314 316
303 302 301 300 299 299 299 299 299 299 299 298 298 297 296 295 295 295 294 293 293 293 294 294 294 294 293 293 292 292 292 292 292 292 292 292 292 293 293 293 294 294 294 294 294 294 295 295 296 296 296 296 297 297 297 298 298 300 302 306 310 313 315
301 300 300 299 299 298 298 298 298 298 298 298 298 297 296 295 295 294 294 293 293 293 294 294 294 293 293 293 292 292 292 292 292 292 291 291 292 292 293 293 293 294 294 294 294 294 294 295 295 296 296 296 296 297 297 298 298 299 300 303 307 311 314
300 300 299 299 298 298 298 298 298 298 298 297 297 296 296 295 294 294 293 292 292 293 294 294 293 293 293 292 292 292 292 292 292 292 291 291 292 293 293 293 294 294 294 294 294 294 294 294 295 295 295 296 296 297 297 298 298 299 299 301 305 309 313

ECMWFFLT1_850_thetae_012.txt.gz
Theta_e
311 311 311 310 309 309 308 309 308 308 307 307 306 306 305 304 305 306 307 309 309 310 311 312 313 314 316 318 320 321 321 321 322 323 323 324 324 323 324 325 327 328 329 330 329 329 329 329 328 328 328 328 328 328 328 328 327 326 326 325 325 325 325
312 312 312 311 310 309 309 308 308 308 308 307 307 306 306 305 305 305 305 305 305 306 307 308 309 312 314 317 320 321 322 321 320 321 322 323 324 323 323 324 324 325 326 328 329 330 330 329 329 328 327 328 328 329 329 328 328 328 327 327 327 327 326
312 313 312 312 311 310 309 309 309 308 308 308 307 307 307 306 306 306 306 305 305 305 305 304 305 307 309 312 316 319 321 322 321 320 321 322 322 323 323 323 324 324 324 324 326 327 328 329 330 329 329 328 328 328 328 328 329 328 328 328 327 327 327
312 313 312 312 311 311 309 309 309 308 308 308 308 307 307 306 306 306 306 306 306 306 305 305 304 304 305 306 308 311 314 318 320 321 321 321 321 321 322 323 323 324 324 324 324 325 326 327 328 329 329 329 329 329 329 328 329 329 329 329 328 328 328
313 313 313 313 312 311 310 309 309 308 308 308 308 307 307 307 306 306 306 306 306 306 305 305 305 305 305 304 304 305 306 309 312 315 317 318 319 319 320 321 322 323 324 324 325 325 326 326 326 327 327 328 329 330 330 329 328 329 329 329 329 328 328
314 314 314 313 313 311 310 309 309 308 308 308 307 307 307 307 307 306 306 306 306 306 305 305 305 305 305 305 305 305 304 304 305 306 309 311 314 315 317 318 320 322 323 324 324 324 325 325 326 326 327 327 328 329 329 329 328 328 327 328 329 329 329
314 314 314 313 313 312 310 310 309 308 308 308 308 307 307 307 307 306 306 306 306 305 305 305 305 305 305 305 305 304 304 304 303 303 304 305 307 310 314 316 318 319 321 322 323 323 324 324 324 325 326 327 328 327 328 328 328 327 327 326 328 329 329
314 314 314 314 313 312 311 310 309 309 308 308 308 307 307 307 306 306 306 306 306 305 305 305 305 305 305 305 304 304 304 303 303 302 302 302 303 305 310 314 317 318 319 320 320 321 322 323 323 323 324 325 326 327 327 327 328 328 327 326 327 328 329
314 314 313 313 313 312 311 311 309 309 308 308 307 307 307 306 306 306 306 306 306 305 305 305 305 305 305 305 305 304 304 303 302 302 302 302 302 303 305 310 313 315 316 318 318 319 319 320 321 322 322 323 324 326 327 327 327 327 327 327 327 327 328
313 312 312 313 313 312 312 310 309 309 308 308 307 306 306 306 306 306 306 306 305 305 305 305 305 305 305 305 305 304 304 304 303 303 303 302 302 302 302 305 309 311 313 315 317 317 317 317 319 320 321 322 322 324 327 327 327 326 326 326 326 327 327
312 311 311 311 312 312 311 310 310 309 309 308 307 306 306 306 306 306 306 305 305 305 305 305 305 305 305 304 304 304 304 304 304 303 303 303 303 302 302 302 304 306 309 311 313 314 314 316 318 319 320 321 321 322 324 325 326 326 326 326 326 326 326
311 310 311 310 311 311 311 310 310 309 309 308 307 306 306 306 306 306 305 305 305 305 305 305 305 305 304 304 304 304 304 304 304 304 303 303 303 303 303 302 302 303 305 307 310 311 312 314 317 319 319 319 320 321 322 322 323 324 324 325 325 325 325
310 310 310 310 310 310 310 310 310 310 309 308 307 306 306 306 306 306 305 304 305 305 305 305 305 305 304 305 304 304 304 304 304 304 303 303 303 303 303 303 302 302 302 304 305 308 310 312 316 318 319 318 319 321 322 322 322 321 321 323 324 325 325
310 310 310 310 309 309 309 309 309 309 309 308 307 306 306 306 306 305 304 304 305 305 305 305 305 305 305 305 305 305 305 305 305 304 304 303 303 303 303 303 303 303 302 303 303 305 307 310 313 316 318 318 318 319 321 323 323 322 319 319 321 323 323
310 310 310 310 310 309 309 309 309 309 309 308 307 306 306 306 305 304 304 305 305 305 305 305 305 305 305 305 305 305 305 305 305 304 304 303 303 303 303 304 304 304 304 303 303 303 305 308 311 314 317 318 318 318 319 321 323 323 321 318 318 318 319
310 310 310 310 310 309 309 309 308 308 308 308 307 307 306 305 304 304 304 305 305 306 305 305 305 305 305 305 304 304 305 304 304 304 303 303 303 303 303 303 304 305 305 305 304 303 304 305 309 312 315 317 317 318 319 319 320 322 322 321 319 319 317
311 310 310 310 310 309 309 309 308 308 308 307 307 307 305 304 304 304 304 305 305 305 305 305 305 305 304 304 304 304 304 304 304 303 303 302 303 303 303 303 304 305 305 306 306 305 304 304 306 309 312 315 316 317 318 319 319 320 321 322 322 323 321
311 311 310 310 310 309 309 309 308 308 308 308 307 306 304 303 304 304 304 304 304 305 305 304 304 304 304 304 304 304 304 304 304 303 303 302 303 303 303 303 303 304 303 304 306 307 307 306 305 306 308 311 314 316 317 317 318 319 320 320 321 322 323
312 311 310 310 310 309 309 309 309 308 308 307 306 304 303 303 304 304 304 304 304 304 304 303 303 303 303 303 303 303 303 303 303 303 302 302 302 302 302 302 302 302 302 303 304 305 306 306 305 305 305 307 310 313 315 316 317 318 319 320 320 320 322
312 311 310 310 310 309 309 309 308 308 307 306 304 303 303 303 303 303 303 303 303 303 303 302 302 302 302 302 302 302 301 301 302 301 301 302 302 302 302 302 302 302 302 302 302 303 304 304 305 305 305 305 307 309 312 315 316 317 318 319 319 319 320
313 312 311 310 310 310 309 308 308 308 306 305 304 303 303 302 302 302 302 302 302 302 302 302 302 301 301 301 301 301 300 300 300 300 300 301 301 301 302 301 301 302 302 302 302 302 302 303 303 304 304 304 305 306 307 310 313 315 316 317 318 319 319
315 313 312 311 311 310 309 308 308 306 305 304 303 303 303 302 302 302 301 302 302 302 302 301 301 301 301 301 301 301 300 299 298 298 299 299 300 301 301 301 301 301 301 301 301 301 301 301 301 302 303 303 303 303 304 306 308 310 312 314 316 318 319
316 315 312 311 311 310 309 309 307 305 304 304 304 303 303 302 302 301 301 302 302 302 302 301 301 301 301 301 300 300 299 298 297 298 298 299 299 300 300 300 300 300 300 300 300 300 300 300 300 300 301 302 302 302 302 303 304 306 308 310 313 316 317
318 315 313 312 311 310 309 308 306 304 304 304 304 303 303 303 302 302 302 302 302 302 301 301 301 301 301 300 299 298 298 297 297 298 298 298 298 298 298 298 298 298 299 299 299 299 298 298 298 299 299 300 301 301 301 301 303 304 305 306 309 312 314
318 315 313 312 312 311 309 307 305 304 304 304 304 304 304 303 302 302 301 302 302 302 301 301 301 300 299 298 297 297 297 297 297 298 298 298 298 298 298 298 298 298 298 298 298 298 298 298 298 298 298 299 300 300 300 300 301 302 303 304 306 308 311
317 315 313 312 311 310 308 306 304 304 304 304 305 305 304 304 302 301 302 302 302 301 300 300 299 298 297 296 296 297 297 297 297 297 297 297 297 297 297 297 297 297 297 297 297 298 298 298 298 298 298 298 299 300 300 300 301 301 302 303 304 306 308
315 314 313 312 311 309 307 305 304 305 305 305 305 305 304 303 302 302 302 301 300 299 298 297 296 296 296 296 296 296 297 297 297 297 297 297 297 297 297 297 296 296 296 296 296 296 297 297 298 298 298 298 299 300 300 300 301 301 301 301 303 305 307
314 313 312 312 311 308 305 304 305 306 306 305 305 304 303 303 302 302 301 299 297 297 296 295 296 296 296 296 296 296 296 296 297 297 297 296 296 296 296 296 296 296 295 295 295 295 295 296 296 297 297 298 299 300 300 300 300 300 301 301 302 304 306
313 313 312 311 309 306 305 306 306 306 306 305 304 304 303 303 301 299 297 296 295 295 295 295 295 295 296 296 296 296 295 295 296 296 295 295 295 295 295 295 295 295 295 295 294 294 295 295 295 296 297 298 299 300 301 300 299 299 300 301 301 302 304
311 311 310 308 307 306 306 306 306 305 305 304 304 303 303 301 298 296 295 295 294 294 294 294 294 294 294 295 295 295 295 295 295 294 294 294 294 294 294 294 294 294 294 294 294 295 295 295 295 295 296 297 297 298 300 300 298 299 299 300 301 301 303
309 309 308 307 306 306 306 306 305 305 304 304 303 301 299 297 296 296 297 295 294 293 293 293 293 293 293 294 295 295 295 294 294 294 294 294 294 294 293 294 294 294 294 294 295 295 295 295 294 294 295 295 295 297 298 298 298 299 298 298 300 301 301
309 307 306 305 305 305 305 305 304 303 302 301 299 298 297 297 297 298 297 295 294 293 293 293 293 293 292 293 294 295 294 294 293 293 293 293 293 293 293 293 293 294 294 294 295 295 295 295 294 294 294 294 294 295 296 296 297 298 298 297 298 299 300
308 306 304 303 304 305 304 303 302 300 299 298 297 297 297 298 298 298 296 295 294 293 293 293 293 293 292 293 294 294 294 293 293 293 293 292 292 292 292 292 292 293 294 294 295 295 295 295 295 294 294 294 294 294 295 295 296 297 297 297 297 298 299
306 305 304 303 303 302 300 299 298 297 297 297 297 298 298 298 297 296 295 295 294 294 294 293 293 292 293 294 294 294 293 293 293 292 292 291 291 291 291 291 291 293 294 295 295 295 295 295 294 294 294 294 294 294 294 295 296 296 296 297 297 297 298
305 304 303 301 300 298 297 297 297 297 297 297 297 297 297 297 296 295 295 294 294 294 294 293 292 293 293 294 294 293 293 293 293 292 291 291 291 291 291 291 291 293 294 294 295 295 294 294 294 293 293 294 294 294 294 295 295 295 296 296 297 297 297
303 301 299 298 297 297 297 297 297 297 297 297 297 296 296 295 295 295 294 294 294 294 293 292 292 293 293 294 294 293 293 293 292 292 291 290 290 290 291 291 292 293 293 294 294 294 294 294 294 294 294 294 294 294 295 295 295 296 296 296 296 296 296
300 298 297 297 298 298 298 298 297 297 297 296 296 296 295 295 295 294 294 294 294 293 292 291 292 293 293 293 293 292 292 292 291 291 290 290 290 290 291 292 292 293 293 293 293 294 294 294 294 294 294 295 295 295 295 295 295 295 296 296 296 297 297

ECMWFFLT1_850_thetae_015.txt.gz
Theta_e
310 311 310 310 309 309 308 307 307 307 307 307 306 305 304 304 305 305 306 307 308 308 309 308 309 309 310 311 312 313 315 317 318 320 321 321 322 323 324 324 324 325 326 326 327 328 328 329 329 329 328 328 328 328 328 328 327 327 327 326 326 326 326
311 311 311 310 310 309 309 308 308 307 307 307 306 306 305 305 305 304 305 304 305 305 305 305 306 307 308 310 311 314 316 318 318 318 319 319 319 320 321 322 323 323 323 324 325 326 326 327 328 329 329 329 329 328 328 328 328 328 328 328 327 327 327
311 311 311 311 311 310 310 309 308 308 308 307 307 306 306 306 306 306 305 305 305 305 305 304 304 305 305 306 307 310 313 316 318 319 319 318 318 319 320 320 321 321 322 323 323 324 324 325 325 326 327 328 328 328 328 328 328 328 328 328 328 328 328
311 311 311 311 311 311 310 310 309 308 308 307 307 306 306 306 306 306 306 306 306 305 305 305 305 305 304 304 304 305 307 310 313 315 317 318 318 319 320 320 319 319 320 322 322 323 324 324 324 324 324 325 325 327 328 329 328 329 328 328 328 328 328
311 311 311 311 311 311 311 310 309 309 308 308 307 307 307 306 306 306 306 306 306 305 305 305 305 305 305 305 304 304 304 304 305 307 309 312 315 317 318 319 319 319 319 320 321 322 323 324 324 323 323 324 323 324 325 326 327 328 329 328 328 328 328
311 311 312 311 311 312 311 311 310 309 309 308 308 307 307 307 306 306 306 306 306 305 305 305 305 305 305 305 305 305 304 304 304 304 304 305 306 308 310 312 315 316 317 318 319 320 322 323 323 323 324 324 324 324 323 324 324 325 327 328 328 329 329
311 311 312 312 312 312 312 311 310 309 309 308 308 308 307 307 306 306 306 306 306 306 305 305 305 305 305 305 305 304 304 304 304 303 303 303 303 303 304 304 306 309 312 315 316 317 319 320 322 322 323 323 323 323 323 323 324 323 325 326 327 328 329
312 312 312 312 312 312 312 311 310 310 309 309 308 308 307 307 307 307 306 306 306 306 305 305 305 305 305 305 305 305 304 304 303 303 303 303 303 302 302 302 302 303 305 309 312 315 317 318 320 320 320 321 322 322 322 323 323 323 323 324 325 326 327
312 312 312 312 312 312 312 311 311 310 310 309 308 308 308 307 307 307 306 306 306 306 305 305 305 305 305 305 305 305 304 304 304 304 303 303 303 302 302 302 302 302 302 304 307 311 315 316 318 318 318 319 320 321 321 321 322 322 323 323 323 324 324
312 312 312 311 311 311 311 311 311 311 310 309 309 308 308 307 307 307 306 306 306 305 305 304 304 305 305 305 305 304 304 304 304 304 303 303 303 303 303 302 302 302 302 302 303 306 309 313 315 316 317 317 318 319 319 320 321 321 322 321 322 323 323
313 312 311 311 311 311 311 311 311 310 310 309 309 308 308 307 307 307 306 306 306 305 304 305 305 305 305 305 304 304 304 303 303 304 303 303 303 303 303 303 303 303 303 302 302 302 304 307 310 313 315 316 316 317 317 318 319 319 318 319 320 321 322
314 312 312 311 311 310 310 310 310 310 310 309 309 309 308 307 307 306 306 306 306 305 304 304 305 305 305 304 304 304 303 303 303 303 303 303 303 303 303 303 303 303 303 303 302 302 302 303 305 308 310 312 313 315 316 317 318 316 316 318 319 319 320
315 313 312 311 310 310 310 310 310 310 310 309 309 309 308 307 307 306 306 306 305 304 304 304 304 304 304 304 303 303 303 303 303 303 303 303 303 303 302 302 302 302 303 303 303 303 302 302 302 304 306 309 311 313 315 317 317 316 315 316 317 318 319
316 314 312 311 310 310 310 310 310 311 310 309 309 309 308 307 306 306 306 306 304 304 304 304 304 304 303 303 303 303 303 303 303 303 303 303 303 303 302 302 301 301 302 303 303 303 303 303 303 302 304 306 308 311 313 315 316 316 315 315 316 318 318
315 314 313 311 310 310 310 310 310 310 310 310 309 309 308 307 306 306 306 305 304 304 304 303 303 303 303 303 303 303 303 303 303 303 303 302 302 302 302 301 301 301 302 303 303 303 304 304 304 303 302 304 306 309 312 313 315 316 315 315 315 316 317
315 315 313 311 310 310 310 310 309 310 310 310 309 309 308 307 306 306 306 304 303 303 303 303 303 303 303 303 303 303 303 303 302 302 302 302 302 302 302 302 301 301 302 302 303 303 304 304 304 304 303 303 304 306 309 312 313 314 315 314 314 315 317
316 315 314 312 311 310 310 310 309 309 310 310 310 309 308 306 306 306 305 303 303 303 303 303 303 303 303 303 302 302 302 302 302 301 301 301 301 301 301 301 301 301 302 302 302 302 303 304 304 305 305 304 304 304 306 309 310 312 313 314 314 315 316
317 316 315 315 313 310 310 310 309 309 310 310 310 309 307 307 306 305 303 303 303 303 303 303 303 302 302 302 302 301 301 301 300 300 300 300 300 300 300 300 300 300 301 301 301 301 302 303 303 304 305 305 305 305 304 306 307 309 311 312 312 313 314
318 316 316 317 316 312 310 310 310 310 310 311 310 309 307 307 306 304 303 303 303 302 302 302 302 302 301 301 300 300 300 300 300 300 299 299 299 299 299 299 299 299 300 301 301 301 301 301 302 303 304 304 305 305 305 305 305 306 308 310 311 311 312
319 318 316 318 319 316 311 310 310 310 311 311 310 308 307 306 304 303 302 302 302 302 302 302 302 301 301 300 300 300 300 300 300 299 299 298 298 298 298 298 298 298 299 300 300 300 300 301 301 301 302 303 303 303 303 304 304 305 305 306 308 310 311
319 319 318 318 320 319 314 311 311 311 311 310 309 308 307 305 303 302 302 302 301 301 301 301 301 301 300 300 300 300 300 300 300 299 298 296 296 296 297 296 297 298 298 299 300 300 300 300 300 300 301 301 302 302 302 302 303 303 303 304 306 307 309
321 321 321 320 321 321 315 312 312 312 311 310 309 308 305 303 303 302 302 301 301 301 301 301 301 301 301 300 300 300 300 300 299 298 296 296 295 296 296 296 297 298 298 299 299 299 300 300 300 300 300 300 300 301 301 301 301 301 302 303 304 305 306
322 322 323 321 321 320 316 313 313 312 310 310 308 306 304 303 303 302 302 302 301 301 301 301 301 301 301 301 301 301 300 299 298 296 295 295 295 296 297 297 298 298 299 299 299 299 299 299 299 299 299 299 299 299 299 300 300 300 300 301 302 304 305
323 322 321 319 317 317 316 314 313 311 310 309 307 305 304 304 303 302 302 302 302 302 301 301 301 301 301 301 300 299 297 296 295 295 295 296 296 296 297 297 298 298 298 298 298 298 299 299 299 298 298 298 298 298 298 299 299 300 299 300 301 302 303
322 321 319 318 316 315 314 313 312 311 309 307 305 305 304 303 303 302 303 303 303 302 301 301 301 301 301 299 297 296 295 295 295 296 296 297 297 297 297 297 298 298 298 298 298 298 298 298 299 298 298 298 298 298 298 298 298 299 299 299 300 300 302
321 321 319 317 317 315 313 312 312 310 308 306 305 305 304 303 303 303 304 303 303 302 301 301 301 300 298 296 295 295 295 295 295 296 296 297 297 297 297 297 297 298 297 297 297 297 298 298 298 298 298 298 298 298 298 297 298 298 298 298 298 300 301
320 320 318 317 316 315 313 312 311 309 307 306 306 305 304 304 304 304 304 303 303 302 301 300 298 296 295 294 294 294 295 294 295 295 295 296 296 297 297 297 297 297 297 297 296 296 296 297 297 298 298 298 298 298 298 298 297 297 297 297 297 299 301
320 319 317 317 315 314 312 311 309 307 305 305 305 304 304 305 305 304 304 303 302 301 299 297 295 294 293 293 293 293 294 294 294 294 294 295 296 296 297 297 296 296 296 296 295 295 295 295 296 296 297 297 297 298 298 298 298 297 297 297 297 298 300
319 318 317 317 315 313 312 310 308 306 304 304 304 305 305 305 304 304 303 302 300 298 297 296 295 294 293 292 292 292 293 293 293 293 294 295 296 296 296 296 296 296 296 295 295 295 294 294 294 295 295 296 296 297 297 297 297 297 297 297 297 297 298
318 318 317 316 313 311 310 309 307 305 304 304 305 305 305 304 304 303 301 299 297 296 297 296 295 294 293 293 292 293 293 293 293 294 294 295 295 296 296 296 295 295 295 295 295 294 294 294 294 294 294 295 295 296 297 297 297 297 297 297 297 297 297
317 317 316 314 311 310 309 308 306 305 305 305 305 305 304 303 302 299 298 297 297 297 297 296 294 293 293 293 293 293 293 293 293 294 295 295 295 295 295 295 295 295 295 294 294 294 293 293 293 293 293 293 294 295 296 296 296 297 296 296 296 296 296
316 315 314 312 311 310 308 306 306 306 305 305 304 303 302 300 298 297 296 297 297 297 296 294 294 293 293 293 292 292 293 293 294 294 295 295 295 295 295 295 295 294 294 293 293 293 293 292 292 293 292 292 293 294 295 295 296 296 295 295 295 295 295
314 314 312 311 309 308 305 305 305 305 304 304 302 300 298 297 296 296 296 296 296 295 294 293 293 293 292 292 292 293 293 294 294 294 295 294 295 295 295 295 294 294 293 293 293 293 293 293 292 293 292 292 292 293 294 294 295 295 294 295 295 295 295
312 311 310 308 306 305 304 305 304 303 302 300 298 296 296 295 295 295 295 295 294 294 293 293 293 292 292 292 292 293 293 294 294 294 294 294 294 294 294 294 294 293 293 293 293 293 293 293 293 293 293 292 293 293 293 293 293 293 294 294 294 294 294
309 307 306 305 305 305 304 303 302 300 298 296 295 295 295 295 295 294 294 293 292 292 292 292 292 291 291 292 293 293 293 294 293 293 293 293 293 292 293 293 292 292 292 292 292 292 292 292 292 292 293 292 292 292 292 292 292 292 293 293 293 294 294
306 305 304 303 303 302 300 299 297 296 295 295 295 295 295 295 295 294 292 292 292 292 292 291 291 291 291 292 293 293 293 293 293 292 292 292 292 292 292 292 292 292 292 291 291 291 291 291 291 291 292 293 293 293 292 292 292 292 292 292 293 293 294
303 303 302 301 299 299 298 297 296 296 296 295 295 296 296 296 294 292 291 291 291 291 291 290 290 291 291 292 293 293 293 292 292 292 291 291 291 291 291 291 291 292 291 291 291 291 291 290 291 291 292 293 293 293 292 292 292 292 292 293 293 294 294

ECMWFFLT1_850_thetae_021.txt.gz
Theta_e
308 309 309 309 308 308 308 308 307 307 306 306 305 304 304 304 305 305 305 305 305 305 306 306 307 307 307 307 308 309 309 311 313 316 319 320 322 323 324 325 325 325 326 327 327 327 328 328 327 327 328 328 328 328 327 328 327 327 327 327 327 327 327
309 309 309 309 309 308 308 308 307 307 307 306 306 305 305 304 304 305 304 305 304 304 304 304 304 304 304 305 305 306 307 308 310 313 315 317 318 319 320 321 322 323 324 325 325 325 326 327 327 327 327 327 327 328 328 327 328 328 328 327 327 328 328
309 309 310 309 309 309 309 308 308 307 307 306 306 306 305 305 305 305 305 305 305 305 305 305 304 304 304 304 304 304 304 305 306 307 309 311 312 314 315 315 317 318 319 321 322 322 323 324 325 325 324 325 325 326 326 327 327 327 328 328 328 328 328
310 310 310 310 310 310 309 309 308 308 307 307 306 306 306 305 305 305 305 305 305 305 305 304 304 305 305 305 305 304 304 304 304 304 305 305 306 307 308 309 310 311 313 316 317 318 319 321 322 322 322 322 322 321 322 323 324 325 325 326 326 326 327
310 310 310 310 310 310 310 309 309 308 308 307 307 306 306 306 305 306 306 306 305 305 305 305 305 305 305 305 305 305 305 305 304 304 304 304 304 304 305 305 306 306 307 309 311 312 314 316 318 318 319 320 320 319 319 317 317 319 321 323 324 325 324
310 310 310 311 311 311 311 310 309 309 308 308 307 307 306 306 306 306 306 306 306 305 305 305 305 305 305 305 305 305 305 305 304 304 304 304 303 303 304 304 304 304 304 305 305 307 308 311 314 316 316 317 317 318 317 315 314 314 315 318 321 323 324
310 310 311 311 311 311 311 311 311 310 309 308 308 307 307 307 306 306 306 306 306 306 305 305 305 305 305 305 305 305 305 305 304 304 304 304 304 303 303 303 303 303 303 303 303 303 304 305 309 312 313 313 313 314 315 315 314 314 315 317 318 320 323
309 310 310 311 311 311 311 311 311 311 311 310 308 308 307 307 307 306 306 306 306 306 305 305 305 305 305 305 305 305 305 305 304 304 304 304 303 303 303 303 303 302 302 302 302 302 302 302 303 305 307 309 310 311 313 313 314 314 313 312 312 315 320
309 309 310 311 311 312 312 312 311 311 311 311 310 309 308 307 307 307 307 307 306 306 306 305 305 305 305 305 304 304 305 305 304 304 303 303 303 303 303 303 303 303 302 302 302 302 302 302 302 302 303 306 309 311 312 312 313 314 313 312 313 316 318
310 310 310 310 311 311 312 312 312 312 312 312 312 310 309 308 308 307 307 307 306 306 306 306 305 305 304 304 304 304 304 304 304 303 303 303 303 302 302 302 302 302 302 302 302 302 302 302 302 302 302 303 307 309 311 312 312 313 313 313 314 315 316
312 311 310 310 311 311 312 312 312 312 312 313 313 312 311 309 309 308 307 307 307 306 306 306 305 305 304 304 304 304 304 304 304 303 303 303 302 302 302 302 302 302 301 301 301 301 301 302 301 302 303 304 304 305 308 309 309 308 308 309 311 314 317
314 313 312 311 311 311 312 312 312 312 312 313 313 313 312 311 310 308 308 307 307 306 306 306 306 305 304 304 304 304 304 304 303 303 303 302 302 302 302 301 301 301 301 300 301 300 300 301 301 301 302 304 305 305 305 305 305 304 305 307 309 311 313
315 315 315 314 313 313 313 313 313 313 313 313 313 313 314 312 311 310 308 308 307 307 306 306 306 306 305 304 304 304 304 304 304 303 303 302 302 302 301 301 300 300 300 299 300 300 300 300 301 302 303 303 304 305 306 306 305 304 303 304 304 304 305
315 317 317 317 316 315 315 315 314 314 313 313 313 314 314 314 313 311 309 308 308 307 306 306 306 306 305 304 303 304 304 304 304 303 303 303 302 302 301 301 300 300 299 299 298 299 299 299 300 301 303 303 304 304 305 306 306 305 304 304 304 303 304
315 317 317 318 318 318 317 316 316 316 315 314 314 314 314 314 314 312 310 309 309 308 307 306 306 306 305 304 303 303 303 303 303 303 303 303 302 302 301 301 300 300 299 299 299 299 298 298 299 299 300 302 303 304 304 304 305 304 304 304 304 304 305
316 317 318 318 318 319 319 318 317 317 317 317 315 314 314 313 314 313 312 310 309 309 308 306 306 306 305 304 303 303 303 303 303 303 302 302 301 301 301 300 300 300 300 299 299 298 298 298 298 298 298 299 301 303 303 303 303 304 303 303 304 304 304
317 317 318 318 318 319 319 320 320 319 319 319 318 316 314 314 314 313 312 311 309 309 308 307 306 306 305 304 303 303 303 303 303 302 302 301 301 300 300 300 300 300 300 299 298 297 297 297 297 297 297 298 299 301 302 303 303 303 303 303 303 303 304
319 319 318 318 319 319 319 320 320 321 320 320 320 319 317 315 314 313 312 311 310 309 309 308 307 306 305 304 303 303 303 303 303 302 302 301 301 300 300 300 300 299 298 298 297 296 296 296 296 297 297 298 299 299 300 302 303 302 302 302 303 304 304
321 321 320 320 320 320 320 320 320 321 321 321 321 320 318 316 315 314 313 312 310 309 309 308 307 307 306 304 303 303 303 303 302 302 301 301 301 300 300 300 299 297 297 296 296 296 296 296 296 296 297 297 298 299 300 301 302 302 302 302 302 303 303
321 321 321 321 322 322 322 322 321 321 320 320 320 319 318 317 316 315 314 313 311 310 309 308 307 307 306 304 303 303 302 302 302 302 301 301 301 300 300 299 297 296 295 296 296 296 296 296 296 297 297 297 298 300 301 302 302 302 302 302 302 302 301
320 321 322 322 322 322 322 322 322 321 320 320 319 319 317 316 316 315 314 314 312 310 310 309 307 307 305 303 302 302 302 302 301 301 301 301 300 300 299 298 296 295 295 295 295 296 296 296 296 297 297 297 298 300 300 301 301 301 302 302 302 301 301
312 315 317 319 321 322 322 322 322 321 320 318 318 317 316 315 315 315 315 314 311 310 309 309 308 306 304 302 302 302 302 302 301 301 301 300 300 299 298 296 295 295 295 294 295 295 295 295 296 296 297 297 298 299 300 300 300 300 300 301 301 301 301
307 307 309 311 314 316 319 320 321 321 320 319 317 316 315 315 315 315 315 313 311 309 308 308 307 305 303 302 302 302 302 302 301 301 300 300 299 298 296 295 294 294 294 294 294 294 294 294 295 295 296 296 297 298 299 299 300 300 300 300 300 300 301
306 306 306 305 306 307 309 312 315 318 320 320 319 317 316 315 315 315 314 313 311 310 309 308 306 304 302 302 302 302 302 302 301 301 300 299 298 296 295 294 294 293 293 293 294 294 294 294 294 295 295 296 296 297 297 298 298 299 299 300 300 300 300
305 305 305 305 305 304 304 306 310 315 318 319 320 318 316 316 315 314 313 313 311 310 308 307 305 303 302 302 303 302 302 301 301 300 299 298 296 295 294 293 293 293 293 293 294 294 294 294 295 295 295 296 296 296 297 297 297 297 298 298 299 299 299
303 303 304 304 304 304 303 304 307 311 314 316 319 318 316 316 315 314 313 312 311 309 307 305 304 303 303 303 303 303 302 301 300 299 297 296 295 294 293 293 293 293 294 294 294 295 295 295 296 296 296 296 296 296 297 297 297 297 297 297 297 298 298
301 302 302 303 303 303 303 303 305 310 314 316 318 318 316 315 314 313 313 312 310 308 306 304 303 303 303 303 303 302 301 300 299 297 296 295 294 293 293 293 294 294 294 295 295 295 296 296 296 296 296 296 297 297 297 297 297 297 297 297 297 297 297
301 301 302 302 302 303 303 303 305 309 313 316 317 317 317 315 313 313 312 311 308 306 305 304 304 303 303 303 302 301 300 299 297 296 294 293 293 293 293 294 294 294 295 295 296 296 296 296 296 296 296 296 296 297 297 297 297 297 297 297 296 297 297
301 301 302 302 302 303 303 303 304 308 312 315 317 317 316 315 313 312 311 309 307 305 305 304 304 304 303 302 301 299 298 297 295 294 293 293 293 293 294 294 294 295 295 295 296 296 296 296 296 296 296 296 296 296 296 296 296 296 296 296 296 296 296
302 302 302 302 302 302 302 303 305 308 312 315 316 316 315 313 312 311 310 308 306 305 305 304 304 303 302 300 299 297 296 294 293 293 293 293 293 293 294 294 295 295 295 295 295 295 295 295 295 295 295 295 295 295 295 295 295 295 295 295 295 296 296
303 303 303 303 303 303 303 304 306 310 313 314 315 315 314 312 311 310 308 306 305 305 304 303 301 300 299 298 296 295 293 293 292 293 293 293 293 294 294 294 295 295 295 295 295 295 294 294 294 294 294 293 293 293 293 294 294 294 294 294 294 294 295
305 304 304 304 304 305 305 306 308 311 313 314 314 314 312 311 310 308 306 305 304 303 301 300 298 297 296 295 293 292 292 292 292 292 292 293 293 294 294 295 295 295 296 295 295 295 294 294 294 293 293 292 292 292 292 293 292 292 293 293 293 293 293
305 305 305 306 306 306 307 307 309 311 313 314 313 311 311 310 308 306 304 303 301 299 298 297 296 295 293 292 292 292 292 292 292 292 292 293 293 294 294 295 295 295 295 295 295 294 294 293 293 293 292 291 291 291 291 292 291 291 292 292 292 292 292
306 306 306 307 308 308 308 309 310 312 313 313 311 309 308 307 305 303 302 300 299 297 296 295 293 292 292 292 292 291 291 291 291 291 292 293 293 294 294 294 294 294 294 294 294 294 293 293 292 292 292 292 292 292 291 291 290 290 290 290 291 291 291
306 306 306 307 308 308 309 310 311 312 312 310 308 307 306 304 303 303 301 300 298 296 294 292 292 292 292 291 291 291 291 291 291 292 293 293 293 293 293 293 293 293 293 294 293 293 292 292 292 292 292 292 292 292 291 290 290 289 289 289 290 290 290
306 306 307 307 308 309 310 310 311 310 309 308 307 305 304 302 301 300 298 296 295 293 292 291 292 292 291 291 291 291 291 291 292 293 293 293 293 293 293 293 293 293 293 293 292 292 292 292 292 292 292 292 292 292 291 290 289 289 289 289 289 289 290
305 306 307 308 309 310 310 309 308 307 306 306 305 303 300 298 297 295 294 293 292 291 291 291 291 291 291 291 290 290 291 292 293 293 293 293 293 293 293 293 293 293 292 292 292 292 292 292 292 292 292 292 291 291 291 290 290 290 290 290 290 290 290

ECMWFFLT1_850_thetae_024.txt.gz
Theta_e
318 314 309 308 309 308 307 308 307 306 306 305 305 306 306 306 307 308 308 309 311 311 311 311 310 310 309 307 309 313 315 318 320 322 323 323 324 324 324 325 327 327 328 328 328 328 328 329 328 328 328 327 328 328 328 328 329 330 329 328 328 329 329
317 314 310 308 308 308 308 308 307 307 306 306 305 305 305 305 305 305 305 305 306 307 308 307 305 305 305 305 305 306 307 310 314 316 318 319 321 321 322 323 324 324 325 326 327 327 327 327 328 328 328 327 328 328 328 328 328 328 328 328 328 329 330
312 312 311 310 308 308 308 308 308 307 307 306 306 306 306 306 306 305 305 305 305 306 306 306 305 305 305 305 305 304 305 305 306 308 311 313 314 316 317 319 321 321 322 323 323 324 324 325 326 326 325 325 325 326 327 327 328 328 327 327 327 328 329
309 309 310 310 309 309 309 308 309 309 308 307 306 306 306 306 305 306 305 306 305 305 305 305 305 306 306 306 306 305 305 305 305 305 305 306 307 307 309 312 315 315 316 318 320 320 321 322 322 323 323 323 322 322 323 323 324 325 326 326 327 327 327
309 309 310 310 309 310 310 310 310 310 309 307 307 306 306 306 306 306 306 306 306 305 305 305 305 305 306 306 306 306 306 305 305 305 305 304 304 304 304 305 307 307 308 311 313 313 315 318 319 319 319 320 321 321 320 319 318 318 319 321 324 326 327
309 309 310 311 310 311 312 312 311 312 311 309 307 307 307 306 306 306 306 306 306 306 305 305 305 306 306 306 306 306 306 306 306 305 305 305 305 304 304 304 304 305 305 305 305 305 307 309 314 317 318 318 318 319 318 317 316 316 315 317 321 323 325
309 309 310 312 312 312 315 313 312 313 313 311 309 308 307 307 306 306 306 306 306 306 306 305 305 305 306 306 306 306 306 305 305 305 305 305 305 304 304 304 304 304 304 303 303 303 303 304 308 314 315 315 315 315 315 316 316 317 317 318 320 321 323
310 309 310 314 313 312 314 313 312 313 314 313 312 309 308 307 307 307 307 307 307 306 306 305 305 305 305 305 305 305 305 305 305 305 304 304 304 304 304 304 304 303 303 303 303 304 305 304 304 306 308 310 313 314 314 315 315 316 317 318 318 319 319
309 309 310 312 312 311 312 313 312 313 313 315 314 310 308 308 307 307 307 307 307 307 307 306 306 305 305 305 305 305 305 305 305 304 304 304 303 303 303 303 303 303 303 303 303 303 304 304 304 304 303 305 309 312 313 314 315 316 317 317 318 318 319
309 309 309 310 310 310 311 312 313 313 313 314 314 311 309 309 308 307 307 307 307 307 307 307 306 306 305 305 305 305 305 305 305 304 304 304 303 303 303 302 302 302 302 302 303 302 302 302 304 305 305 305 306 309 311 313 313 315 315 315 316 316 317
310 309 309 309 309 310 311 312 312 313 313 313 313 312 312 311 309 308 308 308 308 307 307 307 307 306 305 305 304 304 304 304 305 304 304 304 303 303 303 303 302 302 302 302 302 302 302 302 302 303 305 307 308 308 310 312 312 312 312 313 313 315 316
311 311 310 310 310 310 310 310 311 312 313 313 313 313 313 312 312 311 309 308 308 308 308 307 307 306 306 305 305 305 304 304 304 304 304 304 303 303 303 303 302 302 302 301 302 302 301 302 302 302 303 306 307 307 308 310 311 311 311 313 313 312 314
311 311 311 311 311 311 311 310 311 312 313 313 313 313 313 313 313 313 312 310 309 308 308 308 307 307 306 306 305 305 305 304 304 305 304 304 303 303 303 302 302 302 301 301 302 302 302 302 301 301 301 302 304 304 304 307 310 311 310 311 309 308 308
311 311 311 312 312 313 313 313 312 312 313 314 314 314 313 313 314 314 313 312 311 309 309 308 308 307 307 307 306 305 305 304 304 305 304 304 304 303 302 302 302 302 301 301 301 302 304 304 303 303 304 304 305 305 305 306 308 310 310 309 310 310 309
310 310 311 311 312 313 314 315 315 315 315 315 316 316 315 314 314 314 314 314 313 311 310 309 308 308 307 307 306 306 305 304 304 304 304 304 304 303 302 302 302 302 301 300 300 301 303 304 304 305 306 306 306 307 307 306 306 308 308 308 308 310 310
312 311 311 311 311 311 312 314 316 317 317 317 318 318 318 317 316 315 314 314 314 313 312 310 309 308 307 307 307 306 305 304 304 304 304 304 304 303 303 302 302 302 301 301 300 300 301 302 303 305 306 306 306 306 306 305 304 305 307 307 307 308 309
316 316 315 314 313 312 312 312 313 314 317 318 319 319 319 318 318 316 315 315 314 314 313 312 310 309 308 307 307 307 306 305 304 304 304 303 303 303 303 303 302 302 301 301 299 299 301 302 302 303 304 305 306 306 306 305 304 305 306 307 307 306 307
320 320 319 318 317 315 315 314 314 315 316 318 318 319 319 318 318 317 316 316 315 315 314 313 311 310 309 308 307 307 306 305 304 303 303 303 303 303 303 303 302 302 302 301 300 299 299 299 299 299 301 303 305 306 307 306 305 305 306 306 307 306 305
322 321 320 320 320 320 319 319 319 318 319 319 319 319 319 319 318 317 316 315 315 315 314 314 313 311 310 309 308 307 306 305 304 303 303 303 303 303 303 302 302 302 302 301 300 299 298 297 297 297 298 299 301 302 304 304 305 305 305 306 307 307 306
323 322 322 322 322 321 322 322 322 321 321 321 320 320 320 320 320 319 317 316 315 315 315 314 313 312 311 310 309 308 307 306 304 303 303 303 302 302 302 302 302 302 301 300 300 298 297 297 296 296 297 297 298 300 301 302 303 304 305 305 306 306 306
318 319 321 323 323 323 323 322 322 321 321 321 321 322 322 321 321 320 319 317 316 315 315 314 313 313 312 310 309 308 307 306 305 303 303 302 302 303 303 302 302 302 301 300 299 297 297 296 296 295 296 297 298 300 302 302 303 304 304 304 305 305 305
309 310 312 314 316 319 321 322 322 321 321 321 321 321 322 321 321 320 319 317 316 316 315 314 314 314 313 310 309 308 307 306 304 303 302 302 302 303 303 302 302 302 301 300 298 297 296 296 295 295 295 295 296 298 301 302 303 303 304 304 304 305 305
306 306 307 307 308 310 312 314 316 318 319 320 321 320 320 320 319 319 318 317 316 315 315 315 315 314 313 310 309 308 307 306 304 302 302 302 302 302 302 302 302 301 301 300 298 297 296 296 295 295 295 294 295 296 298 300 302 302 303 304 304 304 305
303 304 304 305 306 306 306 307 307 309 312 315 317 319 319 319 319 317 316 316 316 315 315 315 314 314 313 311 308 307 306 304 303 302 302 302 302 302 302 301 301 300 299 298 297 296 296 295 295 295 295 295 295 295 296 297 298 299 301 302 303 303 304
303 304 303 303 304 304 305 305 305 305 305 306 311 316 319 319 319 318 316 315 315 315 314 314 314 313 312 310 308 306 305 303 303 302 302 302 302 301 301 300 299 298 296 296 296 295 295 295 295 295 295 295 296 296 296 296 296 297 298 300 301 302 303
304 305 305 303 303 302 303 303 303 304 305 303 306 312 317 319 319 318 317 316 315 315 314 314 314 313 311 310 308 305 303 303 303 302 302 302 301 301 300 299 297 295 295 295 295 295 295 295 295 295 296 296 296 296 296 296 296 296 296 297 298 299 301
304 304 304 303 302 301 302 303 302 302 303 304 304 306 311 316 318 317 317 316 315 314 314 314 313 312 311 309 307 304 303 303 303 302 302 302 301 300 298 296 295 294 294 294 294 294 295 295 295 295 296 296 297 297 297 297 297 297 297 297 297 297 298
305 304 303 302 301 301 301 302 302 302 304 307 309 309 311 314 316 317 317 316 314 314 314 313 312 311 310 308 306 304 303 303 303 302 302 301 300 297 296 294 294 294 294 294 294 294 295 295 295 296 296 296 296 296 296 297 297 298 298 298 298 298 298
305 305 305 305 304 303 302 301 301 302 304 309 312 313 313 314 316 317 317 316 314 314 313 312 311 311 308 306 305 303 303 302 302 301 300 299 297 295 294 294 294 293 294 294 294 295 295 295 296 296 296 296 296 296 296 296 297 297 298 298 298 299 299
305 306 307 308 308 307 304 303 303 303 305 310 312 313 314 314 315 316 317 315 314 314 312 311 310 308 306 305 303 302 301 300 299 298 297 296 294 293 293 293 293 294 294 294 295 295 296 296 296 295 295 295 295 295 296 296 296 296 296 296 296 297 297
306 307 308 308 309 309 307 306 307 308 309 311 312 312 313 313 314 316 316 315 314 313 311 310 308 306 305 304 303 301 299 298 296 295 295 294 294 294 293 293 294 294 295 295 295 296 296 295 295 295 295 295 295 295 295 295 295 295 295 295 295 295 295
306 307 308 308 308 309 309 308 309 310 310 312 312 312 312 313 314 315 314 313 312 311 310 308 306 305 303 302 302 301 299 296 294 294 294 294 295 295 294 294 295 295 295 295 296 296 296 295 294 294 293 293 293 294 294 294 294 294 294 295 295 295 295
307 307 308 308 309 309 309 309 309 309 310 311 311 311 311 313 314 314 312 311 310 309 308 306 304 302 301 300 300 299 297 294 293 293 293 293 294 294 295 295 296 296 295 295 295 295 295 294 294 293 293 292 293 293 293 293 293 294 294 294 294 294 294
307 307 307 308 308 308 309 309 309 309 310 310 310 310 311 313 312 311 309 308 307 306 304 302 301 300 299 299 297 296 293 293 292 292 292 292 293 294 295 296 296 296 295 294 294 294 294 293 293 293 292 292 292 292 292 292 292 292 292 292 292 292 292
307 307 307 307 308 308 308 309 309 309 309 309 309 310 312 311 310 308 307 306 304 302 300 299 298 298 297 296 294 293 292 292 292 291 292 292 294 294 295 295 295 294 294 294 294 293 293 292 292 292 292 292 292 292 291 291 290 290 290 290 291 291 292
306 307 307 307 307 308 308 308 308 308 308 309 310 311 310 308 307 305 303 301 300 299 298 297 296 295 294 293 292 292 292 291 291 292 293 294 294 294 294 294 294 294 294 293 293 293 292 292 292 292 292 292 292 291 291 290 290 289 290 290 290 291 291
306 306 307 307 307 308 308 307 307 308 309 310 310 308 306 305 304 302 300 299 298 298 297 296 294 293 292 292 291 291 291 292 293 294 294 294 294 294 294 294 294 294 294 294 294 293 293 293 292 292 292 292 291 291 290 289 289 289 290 290 290 291 291

ECMWFFLT1_850_thetae_027.txt.gz
Theta_e
320 321 320 320 320 317 312 313 314 312 314 316 317 319 319 318 316 316 317 318 318 317 317 317 317 316 317 315 314 316 319 320 321 323 324 325 325 326 326 326 326 326 327 329 328 328 328 328 327 326 325 324 324 326 326 327 328 327 327 328 328 329 330
321 320 319 320 318 314 312 315 318 317 315 314 314 316 316 314 312 312 312 312 313 314 314 313 311 309 308 309 308 309 312 312 311 315 320 321 321 321 322 324 323 324 326 327 327 327 327 327 327 327 327 326 325 324 323 325 327 326 326 327 329 329 328
321 318 318 320 318 315 314 313 315 317 315 312 311 311 313 312 310 310 309 307 308 310 311 311 309 307 305 306 306 305 306 307 305 307 310 313 313 312 316 321 322 322 324 323 323 324 324 324 326 326 326 326 326 325 321 323 325 325 326 325 324 325 326
320 318 319 319 319 319 317 315 316 318 317 313 309 309 311 310 309 309 307 307 306 307 309 310 310 309 306 306 306 306 306 306 306 305 305 306 307 306 310 317 319 318 319 321 322 321 321 323 324 324 324 322 323 323 320 320 320 319 322 321 318 319 322
319 317 319 319 319 320 319 318 319 319 317 314 310 310 309 308 309 307 306 308 307 306 307 308 309 309 308 307 307 307 306 306 306 306 305 305 306 307 306 308 311 313 313 315 316 315 314 317 319 320 319 319 320 321 320 320 318 315 315 316 314 315 316
317 315 318 320 319 320 320 319 319 319 319 316 314 313 309 307 310 310 310 312 308 306 307 306 307 307 307 308 306 306 307 306 306 306 305 305 306 307 306 305 310 314 313 309 307 308 307 308 313 317 317 317 317 318 318 318 317 316 316 316 315 316 316
318 314 316 320 319 319 319 320 319 318 319 318 316 316 311 309 313 312 312 312 308 307 307 306 306 306 307 312 309 306 306 306 306 306 305 305 305 305 305 306 308 310 310 308 307 309 310 308 311 314 315 315 315 315 315 315 315 316 317 318 319 320 320
320 317 316 319 319 318 319 320 319 318 319 319 318 318 313 309 312 312 310 309 308 307 308 306 307 305 307 312 310 306 306 306 306 306 305 305 304 304 304 304 307 307 306 308 309 312 313 311 310 308 307 310 313 314 315 316 315 315 316 317 318 318 319
321 319 318 318 319 319 319 319 320 318 318 319 319 319 315 309 310 311 310 310 308 308 308 307 308 307 305 309 309 306 306 306 306 306 305 305 304 304 303 303 307 308 302 304 307 307 307 308 310 311 308 308 312 313 314 314 314 315 316 317 318 318 318
321 321 319 318 319 320 319 319 320 318 318 318 319 319 316 311 310 311 311 311 309 308 309 307 308 308 306 308 308 306 306 306 306 306 305 305 304 304 304 303 307 309 303 302 304 303 302 303 306 311 312 311 311 312 313 314 314 315 316 316 315 316 316
320 321 320 320 320 321 320 319 319 319 318 317 319 319 316 312 312 311 311 312 310 309 309 308 309 308 307 309 308 306 306 305 306 306 305 305 304 304 304 303 306 310 305 302 303 302 302 302 302 306 311 313 313 313 313 313 312 311 312 313 314 315 317
317 319 320 321 321 322 321 320 319 320 320 318 318 318 315 313 313 312 312 313 312 310 310 309 309 308 309 311 310 308 307 305 306 307 305 305 305 304 305 303 305 308 305 302 305 304 303 303 303 304 308 310 312 313 314 313 313 310 310 311 311 311 313
318 318 320 321 321 322 322 321 320 320 320 319 319 318 315 314 314 313 313 314 313 312 311 310 310 309 309 311 310 311 311 306 307 309 307 306 305 304 305 305 305 306 304 303 305 305 305 305 303 303 305 307 309 311 312 312 313 312 311 312 311 309 308
321 320 320 321 322 322 322 322 321 321 321 321 320 319 317 316 316 315 315 315 315 314 312 311 311 309 310 311 310 312 312 307 308 311 310 307 306 305 305 306 307 307 304 304 304 304 307 307 307 307 308 309 310 311 311 311 312 312 312 312 312 311 310
322 320 320 321 322 322 322 323 323 322 322 321 320 320 319 318 318 318 317 317 317 316 314 313 312 311 311 311 310 310 310 307 309 312 311 308 308 307 305 305 307 307 304 304 303 304 306 307 307 308 309 309 310 310 310 310 311 311 311 310 310 311 311
319 319 319 319 320 321 321 322 323 323 323 322 322 321 320 319 319 319 318 319 318 318 316 315 314 313 312 311 310 309 309 308 308 310 308 307 310 310 307 305 306 306 304 304 303 303 305 305 306 308 308 308 308 309 309 309 309 309 310 309 309 309 310
319 318 318 319 318 319 318 319 320 322 322 322 322 322 321 320 320 320 320 320 320 319 319 317 316 314 313 312 311 311 310 309 308 308 307 307 309 309 307 306 306 306 305 304 303 304 306 307 307 306 306 306 307 308 309 310 310 310 310 310 309 309 309
321 320 319 319 319 319 319 318 318 319 320 320 320 322 322 321 320 320 320 320 320 320 319 318 317 316 314 313 313 311 311 310 309 308 308 307 307 307 305 304 305 305 304 304 303 304 305 305 304 303 303 305 306 306 306 307 308 309 310 310 309 308 308
323 323 322 321 321 320 319 319 318 317 319 321 322 321 322 321 320 321 321 321 320 320 319 319 318 317 315 314 314 313 312 311 310 309 309 308 307 306 305 304 304 304 303 304 303 303 303 302 301 301 302 302 303 303 303 303 304 306 307 308 308 308 309
323 324 324 323 323 322 321 320 320 318 319 322 323 323 322 322 321 321 321 321 321 320 320 319 318 317 316 316 315 314 313 312 311 310 309 308 307 306 305 304 303 303 303 303 303 303 302 301 300 300 300 300 301 303 304 304 304 306 307 307 307 308 308
318 320 321 322 323 324 324 323 322 321 322 323 323 323 323 322 322 321 321 321 321 321 320 319 318 317 317 316 315 315 313 312 312 311 310 308 307 306 305 304 303 303 303 303 303 303 301 300 299 298 298 298 299 300 301 303 304 306 306 307 307 307 308
311 312 316 318 319 321 321 321 322 322 322 323 323 323 323 322 322 321 321 321 321 321 320 319 318 318 317 316 315 315 314 313 312 310 310 308 307 306 305 304 303 303 303 303 303 303 302 301 299 299 298 297 296 296 297 299 302 304 306 306 306 306 307
308 309 311 313 315 317 318 319 320 320 320 321 321 322 322 322 322 322 322 321 321 320 320 319 318 318 317 316 315 315 314 313 312 311 309 308 307 306 305 303 303 303 303 303 303 304 303 303 301 300 299 297 296 296 296 297 299 301 303 304 305 305 306
308 309 309 310 311 313 315 316 319 319 318 318 318 319 319 320 321 322 322 320 320 319 318 318 318 317 316 315 315 314 314 313 312 311 309 308 306 305 304 303 303 303 303 303 303 303 303 303 302 301 300 299 297 296 296 296 296 297 298 300 301 303 304
308 309 309 310 310 311 312 313 316 318 318 318 317 317 317 317 316 319 320 320 320 319 318 318 317 316 316 315 314 314 313 313 312 311 309 307 305 304 303 303 303 303 303 303 302 302 301 300 301 300 300 299 297 297 296 296 296 296 296 296 297 299 301
309 309 309 310 310 311 311 312 313 315 316 316 316 317 317 316 313 313 316 318 319 319 318 317 316 316 316 315 314 313 313 312 312 310 308 307 305 304 303 303 303 303 302 302 300 299 298 298 298 298 298 297 296 296 296 296 296 296 296 297 297 297 298
309 309 309 310 310 311 312 312 312 313 314 315 316 316 316 316 315 314 315 316 316 317 317 317 317 316 316 314 314 313 312 311 310 309 308 307 306 305 304 303 303 303 301 299 297 297 297 297 297 297 297 296 296 297 297 297 297 297 296 297 297 297 297
309 309 309 309 310 310 311 312 312 313 313 314 315 315 315 315 315 316 315 314 315 317 317 317 317 316 315 314 313 313 312 310 309 309 307 306 305 304 304 303 303 302 300 298 296 296 296 296 295 295 295 296 296 296 297 298 298 297 298 298 298 299 299
310 309 309 309 310 310 311 312 312 312 312 313 314 314 315 315 315 315 314 313 315 317 316 316 316 316 315 314 313 312 311 310 309 308 306 304 304 303 303 302 301 299 298 297 296 295 295 295 295 295 295 296 296 296 296 297 297 297 298 298 298 299 299
310 310 310 310 310 310 311 311 312 313 313 312 313 313 314 315 315 315 314 314 315 316 315 315 315 315 314 313 312 311 309 308 307 305 304 303 302 302 301 300 299 298 297 296 295 294 294 295 295 295 296 296 296 296 296 297 297 297 297 297 297 297 297
309 309 310 310 310 311 311 311 312 313 313 313 313 313 313 313 314 314 314 314 315 315 315 314 314 313 312 311 310 309 306 304 303 302 301 301 301 300 300 299 298 297 296 295 295 295 295 296 296 296 296 295 295 296 296 296 296 297 297 297 297 297 297
309 309 309 310 310 310 311 311 312 313 313 313 313 312 312 313 313 314 314 314 314 314 314 314 312 310 309 308 308 307 305 303 302 301 300 299 299 299 299 298 297 296 296 297 297 297 296 296 296 296 295 295 295 295 295 295 295 296 296 296 297 297 297
309 309 309 310 310 310 311 311 311 312 312 312 312 312 312 312 312 313 314 313 312 312 313 312 310 308 307 307 306 305 304 303 302 300 298 296 296 296 296 297 297 298 298 298 298 297 297 296 296 295 294 294 294 294 294 294 294 295 295 295 295 295 296
309 309 309 310 310 310 310 310 311 311 311 311 311 311 312 311 311 312 312 311 311 311 310 309 308 306 305 305 305 304 303 301 299 296 294 294 293 294 295 297 298 298 298 298 298 297 297 296 295 294 293 293 293 293 293 293 293 293 293 293 293 293 293
309 309 309 309 309 309 309 309 309 310 310 310 311 311 311 311 311 311 311 310 310 309 307 306 305 305 304 304 303 302 299 297 295 293 293 293 292 294 295 297 298 298 297 297 297 296 296 295 294 293 293 293 293 293 292 292 291 291 291 291 291 291 292
308 309 309 309 308 308 308 308 309 309 310 310 310 310 310 310 310 310 310 309 307 306 304 304 303 303 303 301 299 297 295 294 293 292 292 293 293 294 295 297 297 297 296 296 295 295 294 293 293 293 293 293 293 292 292 291 291 291 290 290 290 291 291
308 308 308 307 307 307 308 308 308 309 309 309 309 309 308 308 308 308 308 306 305 303 303 302 302 301 300 298 296 295 293 293 292 293 293 293 294 294 295 295 296 296 295 295 294 294 293 293 293 293 293 293 292 292 291 291 290 290 290 290 290 290 291

ECMWFFLT1_850_thetae_030.txt.gz
Theta_e
322 321 318 316 313 309 308 310 311 312 315 316 317 318 316 311 313 315 316 317 316 316 315 311 310 311 310 310 312 317 321 322 323 324 323 324 324 325 325 325 324 324 326 328 327 326 327 327 327 325 322 321 321 321 322 324 325 326 327 327 328 327 328
321 318 314 313 311 309 309 314 316 312 312 314 314 315 313 308 308 310 311 314 315 315 314 308 306 306 306 305 305 308 311 314 318 322 322 321 322 323 323 322 322 323 324 326 326 326 327 327 327 326 324 323 323 323 323 322 321 322 324 325 327 327 327
320 315 314 313 310 310 310 312 314 312 310 310 309 310 310 308 307 307 306 308 311 312 312 308 307 306 306 306 305 306 306 306 309 314 315 315 315 317 320 321 321 322 322 323 324 324 324 324 324 325 324 324 324 324 323 321 318 317 318 320 322 322 323
319 315 317 315 309 311 311 311 315 316 313 309 308 309 309 308 307 307 307 306 307 308 309 309 309 308 306 307 307 306 306 306 305 307 308 307 308 310 314 318 319 320 321 321 322 323 322 321 322 324 323 321 321 321 321 320 318 316 316 317 316 316 318
319 316 317 315 310 312 312 313 317 318 314 310 308 308 308 308 308 308 308 307 307 307 307 308 310 309 307 307 307 307 307 307 306 306 305 306 306 307 308 313 315 315 316 318 318 319 317 315 316 319 319 317 318 319 319 318 316 315 315 315 313 312 313
319 316 316 313 312 314 313 315 318 318 316 314 311 309 308 308 308 308 308 308 307 307 306 307 307 307 308 308 306 307 307 306 307 306 306 306 306 306 306 310 313 312 310 310 309 310 310 308 310 315 315 316 317 316 315 315 314 314 314 314 314 313 312
319 315 317 315 312 315 316 316 318 319 319 317 314 312 310 308 308 308 308 308 308 308 307 307 306 307 312 312 307 306 307 306 307 306 306 305 305 305 305 306 308 307 306 306 306 310 312 309 309 312 310 311 313 313 314 315 314 315 316 315 316 317 317
317 314 317 318 314 315 319 319 318 319 320 319 318 315 311 309 309 309 309 308 308 308 308 308 307 307 310 310 307 306 306 306 307 306 305 305 304 304 304 305 307 305 303 305 305 309 311 307 308 309 306 306 308 310 314 315 315 315 315 316 318 318 318
318 314 316 320 318 317 319 320 319 319 319 320 319 317 314 311 310 309 309 309 308 309 309 308 308 307 307 308 307 307 306 306 306 306 306 305 304 304 303 305 308 304 302 304 303 304 305 303 307 310 310 309 308 309 311 312 313 316 316 317 317 316 316
321 317 316 319 320 319 319 320 320 319 318 319 319 318 316 312 311 310 310 310 309 309 309 308 308 308 307 308 307 307 306 306 306 306 306 305 304 304 303 304 308 306 302 303 303 302 303 302 304 309 313 314 313 312 313 310 309 313 314 315 315 315 315
322 321 319 319 319 320 320 320 321 321 319 318 319 318 316 314 312 312 311 311 310 309 309 309 309 308 308 308 308 308 307 306 306 306 306 306 305 304 304 304 306 305 303 303 303 303 303 302 302 305 310 313 313 314 314 311 308 307 308 309 310 312 314
322 322 322 320 319 320 321 321 320 321 320 318 319 318 317 315 313 312 312 312 311 310 309 309 309 309 309 309 308 308 307 307 307 306 306 306 306 305 305 304 304 304 303 304 305 304 304 303 303 303 305 307 309 310 310 309 308 306 306 306 306 307 308
324 324 323 322 321 321 321 321 320 320 320 320 319 319 318 317 315 314 313 313 313 312 311 310 310 310 309 309 309 309 308 307 307 307 307 306 306 306 306 305 305 304 304 304 305 305 305 305 305 305 306 306 306 307 307 307 307 306 305 306 305 304 304
325 324 322 321 320 321 321 321 320 319 320 320 320 320 319 319 318 317 316 315 315 314 314 313 312 311 310 310 309 309 309 308 308 308 308 308 307 307 306 306 306 306 305 305 305 304 305 307 307 308 308 308 308 309 310 310 309 306 304 304 305 304 303
323 321 319 319 319 319 320 319 318 318 319 320 321 321 320 320 321 319 319 318 318 317 317 316 315 314 312 311 310 310 310 309 309 309 309 308 307 307 307 307 307 307 306 305 305 305 305 306 306 307 308 308 308 308 308 308 308 306 305 304 304 304 304
320 319 318 319 319 320 320 320 318 317 319 320 320 321 321 321 321 320 320 320 320 320 320 319 318 317 315 314 312 312 311 310 309 309 309 309 308 308 308 307 306 306 306 306 306 306 305 305 306 306 306 306 306 306 307 307 307 307 307 306 306 306 305
319 320 320 319 320 320 320 320 318 318 319 318 319 320 321 321 321 320 321 320 320 320 320 320 320 319 318 316 315 314 313 312 311 310 310 310 309 310 310 308 307 306 306 306 306 305 305 306 306 306 305 304 304 306 307 307 307 308 308 307 305 305 305
321 321 320 320 319 320 321 321 320 319 319 319 320 321 321 321 321 320 320 320 320 320 320 320 320 319 318 317 316 315 315 314 313 312 312 311 310 311 311 309 307 307 306 305 305 305 305 305 305 305 304 304 304 305 305 305 305 305 305 304 304 303 303
323 322 321 320 319 319 320 321 321 320 319 318 319 321 322 322 321 321 321 320 320 321 320 320 320 320 319 318 317 316 316 316 315 313 313 312 311 311 311 309 307 307 306 305 304 305 305 305 305 304 305 304 304 303 303 303 303 302 302 303 303 303 303
322 322 321 320 320 320 319 319 320 321 320 318 318 320 321 320 319 319 320 320 320 320 320 320 320 319 319 318 318 317 317 316 315 315 314 313 312 312 310 309 308 307 306 305 304 304 304 304 304 304 304 304 304 303 302 302 301 300 301 301 301 303 304
315 316 316 317 318 319 319 318 319 320 320 319 319 320 321 320 318 318 319 319 319 320 320 320 320 320 319 319 318 318 317 317 316 315 314 313 313 312 311 309 308 307 306 305 305 304 304 304 304 304 304 303 303 303 303 302 301 299 299 299 300 302 304
311 310 311 313 316 317 317 318 318 317 317 318 318 319 320 320 319 318 318 318 318 319 319 318 319 319 320 319 319 318 318 317 316 315 314 314 313 312 311 310 309 307 306 306 305 304 304 303 303 303 303 303 303 303 303 302 301 300 298 298 299 300 301
309 309 310 312 314 314 315 316 317 316 315 315 315 316 317 318 319 319 319 319 319 319 318 317 318 319 320 320 319 318 318 317 316 316 314 313 312 312 311 310 309 308 307 306 305 305 304 303 303 303 303 303 303 302 302 301 301 299 298 297 297 297 298
309 309 309 310 310 311 312 313 314 314 315 315 315 315 314 313 313 314 316 319 320 320 320 320 320 319 319 320 319 318 318 317 317 316 314 313 312 311 311 310 309 308 307 306 306 305 304 304 304 303 303 303 302 301 301 300 299 298 298 297 297 297 297
309 309 309 309 310 310 311 311 311 312 314 315 316 316 315 314 312 311 312 315 317 320 320 320 321 320 319 319 319 318 318 317 317 315 313 313 312 311 310 310 308 307 306 306 305 304 304 303 303 303 303 302 301 301 300 299 298 297 297 297 297 297 297
308 309 309 309 309 309 310 311 311 311 313 313 314 316 317 317 317 316 315 314 315 318 318 317 318 320 320 319 319 318 317 316 316 315 313 312 312 311 310 310 308 307 306 305 304 303 303 302 302 302 301 300 299 298 297 297 296 296 296 297 297 297 297
309 309 309 309 309 309 309 310 311 311 312 312 313 314 315 316 317 317 317 315 313 316 317 315 314 317 318 319 319 318 317 316 315 314 313 312 312 311 310 310 308 307 305 304 304 303 302 301 301 300 298 297 296 296 296 296 296 296 296 297 297 298 298
309 310 309 309 309 309 309 309 309 310 311 311 311 312 313 314 315 315 316 315 315 316 318 317 315 315 317 318 318 317 316 316 315 314 313 312 312 311 310 309 307 306 305 304 304 303 303 301 300 298 296 295 295 295 295 295 296 296 296 296 297 297 298
310 310 310 310 310 309 309 309 310 310 311 311 311 311 312 312 313 314 314 315 316 317 317 317 317 316 317 317 317 316 316 315 315 314 312 312 311 309 308 307 306 306 305 304 303 303 301 299 298 296 296 296 296 296 296 296 296 296 296 296 296 297 297
309 309 309 310 310 310 310 310 310 310 310 311 312 312 312 312 313 313 314 314 315 316 316 316 317 317 317 317 317 316 315 314 314 313 311 310 309 307 306 306 305 304 303 302 301 300 298 297 297 298 298 298 297 296 296 296 296 296 296 296 296 296 297
308 308 309 309 309 309 309 309 310 310 310 310 312 312 312 312 312 313 313 314 314 315 315 315 315 316 316 317 316 315 314 313 313 311 309 307 306 305 304 303 302 302 301 300 299 298 297 298 298 299 298 298 297 296 296 296 296 295 295 296 296 296 296
307 308 308 309 309 309 309 309 309 309 310 310 311 311 312 312 312 312 312 313 313 314 314 314 314 315 316 316 315 314 313 313 311 308 306 305 303 302 301 301 301 300 299 298 297 297 298 298 298 298 298 297 297 297 296 296 295 295 295 294 294 294 295
307 307 308 308 309 309 309 310 310 310 310 311 311 311 312 311 312 312 312 312 313 313 314 314 313 314 315 315 314 313 313 312 309 307 305 303 302 302 302 301 299 297 296 297 297 298 299 299 298 298 298 297 297 296 296 295 294 294 294 294 294 294 294
307 307 308 308 309 309 310 310 310 310 310 310 311 311 311 311 311 311 312 312 312 312 313 313 313 313 313 313 313 312 311 311 308 306 304 303 303 302 300 298 296 296 296 297 298 298 298 298 298 297 297 296 296 295 294 294 294 293 293 293 293 293 294
306 306 307 307 308 309 309 310 310 309 310 310 310 311 311 311 311 311 311 311 311 312 312 312 312 311 311 311 310 311 310 309 306 305 304 303 302 300 297 295 295 296 297 297 297 297 297 297 297 296 295 295 294 294 293 293 293 293 293 293 293 293 292
307 307 307 307 308 309 309 308 308 308 308 309 310 310 311 311 311 311 311 311 311 311 311 310 310 309 309 308 308 307 307 306 304 304 304 301 299 296 295 294 294 295 296 295 296 296 296 295 295 294 294 294 293 293 293 293 292 292 292 292 292 291 291
307 307 308 308 308 308 308 307 307 307 308 308 309 310 310 310 310 310 310 310 309 309 309 308 307 307 306 305 305 305 304 303 303 301 299 297 295 294 294 294 294 294 294 295 295 295 294 294 294 294 294 293 293 293 292 292 292 292 292 291 291 291 291

ECMWFFLT1_850_thetae_033.txt.gz
Theta_e
311 311 310 309 308 308 307 307 308 308 307 308 307 307 307 311 316 317 315 315 314 311 310 313 316 315 316 320 322 322 323 324 324 324 324 325 325 325 325 325 325 325 325 326 327 326 324 324 324 324 324 323 323 323 323 324 325 326 326 326 327 327 327
313 311 310 309 308 308 308 308 307 307 308 307 307 307 306 307 311 314 315 314 311 308 306 307 308 306 308 315 318 319 322 323 323 323 323 323 324 323 323 322 322 323 324 325 325 326 326 325 325 325 324 323 322 321 321 322 323 323 325 326 326 326 327
314 311 309 309 308 309 309 308 308 307 308 307 307 307 306 306 307 309 311 311 308 307 306 306 306 305 306 307 308 311 316 319 321 322 321 321 323 323 321 321 322 322 323 324 324 325 325 323 324 325 323 322 322 323 322 322 321 320 321 322 324 325 325
313 311 309 309 309 309 309 309 309 308 308 308 307 307 307 307 306 307 307 307 307 307 307 306 307 307 306 306 306 306 308 310 314 316 313 313 316 320 320 320 320 321 321 323 323 322 322 322 323 323 321 318 319 323 322 320 318 316 316 317 318 320 320
313 309 309 309 309 309 310 310 309 309 308 308 308 308 307 307 307 307 307 307 307 307 307 307 307 307 307 307 307 307 306 306 307 308 307 306 308 314 318 319 320 320 320 321 321 322 322 320 318 318 319 317 317 319 320 318 315 314 314 315 315 316 315
313 309 309 310 309 310 310 310 310 310 310 309 308 308 308 308 308 308 308 307 307 307 307 307 307 307 307 307 307 307 307 307 306 306 306 306 305 308 311 314 315 316 318 319 318 317 316 313 308 309 314 317 316 317 317 315 314 314 315 316 316 318 319
313 311 310 309 309 310 310 310 310 311 312 311 310 308 308 308 308 308 308 308 307 307 307 307 307 307 307 306 307 306 306 307 307 306 306 306 306 305 306 307 307 308 310 311 309 309 308 305 305 305 308 312 313 314 314 313 314 315 316 316 319 321 320
314 312 312 311 310 310 311 311 311 311 312 313 312 311 310 309 308 308 308 308 308 307 307 307 307 307 307 306 306 306 306 306 306 306 306 305 305 305 305 305 305 304 305 305 304 305 305 304 304 305 305 307 308 309 311 313 314 315 316 317 319 319 319
314 313 315 314 312 311 313 313 312 313 313 313 313 313 313 311 310 309 309 308 308 308 308 308 307 307 307 307 306 306 306 306 306 306 305 305 304 304 304 304 304 304 303 303 303 303 303 303 303 304 304 305 306 307 310 314 314 314 315 316 317 316 317
315 314 317 318 316 315 317 317 317 316 315 314 314 314 314 313 311 311 310 310 309 309 308 308 308 307 307 307 307 306 306 306 306 306 305 305 304 304 304 304 304 303 303 303 303 303 303 303 303 303 304 304 304 305 306 308 309 312 313 313 314 315 315
318 314 317 319 319 318 319 319 320 319 317 316 315 314 314 313 313 312 311 311 311 310 309 309 308 308 308 307 307 307 306 306 306 306 305 305 305 304 304 304 304 303 303 303 303 303 303 303 302 303 303 304 304 303 303 304 305 307 309 309 309 312 313
320 317 316 319 320 319 319 320 320 320 319 318 316 316 315 315 315 314 313 313 312 312 311 310 309 309 308 308 308 307 307 307 306 306 306 306 305 305 305 305 304 304 304 304 304 304 303 303 303 303 303 303 303 303 303 303 303 304 306 305 305 307 309
321 320 318 319 319 319 319 320 320 320 320 319 318 318 318 318 317 317 316 316 315 314 313 313 312 311 309 309 309 308 308 308 307 307 307 306 306 306 305 305 305 305 305 305 305 304 304 304 304 304 304 304 304 305 304 304 304 304 304 304 304 304 305
322 322 321 320 320 319 320 320 320 320 320 320 320 320 320 320 319 319 319 319 318 317 316 315 315 314 313 311 310 309 309 309 309 308 308 307 307 306 306 306 306 306 305 305 305 306 306 306 306 306 306 305 305 306 305 305 305 306 306 305 305 305 305
322 322 322 321 321 320 320 320 321 320 319 319 320 320 320 320 320 320 320 320 320 319 318 318 318 317 317 315 313 311 310 310 310 309 308 308 308 308 307 307 307 306 306 306 306 306 306 306 306 306 306 306 305 305 305 306 306 307 308 308 307 307 307
324 324 323 323 322 321 321 321 321 319 318 317 318 319 320 321 321 320 321 320 320 320 320 319 319 319 319 318 317 315 313 312 312 311 310 309 309 309 308 308 308 307 307 306 306 306 306 306 306 306 306 306 305 305 306 306 306 307 307 308 308 308 308
324 323 322 320 320 322 321 321 320 319 318 317 318 319 320 321 321 321 320 319 319 319 320 320 320 320 320 320 319 318 316 315 314 313 312 311 310 311 309 308 309 308 307 306 306 306 306 306 306 306 306 305 305 305 305 305 305 306 306 307 308 307 307
322 322 320 319 320 322 321 320 320 320 319 318 318 318 319 320 320 321 320 318 318 319 320 320 320 319 320 320 320 319 318 317 316 315 314 313 312 312 311 310 310 309 308 307 306 306 305 306 305 305 305 304 304 304 304 305 304 304 305 305 307 307 307
320 320 320 320 321 322 322 321 320 320 319 318 317 317 317 318 318 318 317 317 317 318 319 319 319 318 319 318 319 320 319 318 317 316 316 315 313 313 312 312 311 311 309 308 307 306 305 305 305 304 304 304 304 304 304 304 304 304 305 305 306 306 306
322 322 322 322 321 321 321 321 320 319 319 319 319 318 318 318 318 317 317 318 318 318 318 317 317 317 318 317 317 319 319 319 318 318 317 316 315 314 313 312 312 312 310 308 307 306 306 305 305 304 304 303 303 303 304 304 304 305 305 305 305 305 305
318 318 319 319 319 319 319 319 319 319 319 319 319 319 319 319 319 318 318 319 319 319 318 317 316 317 319 317 316 318 319 319 318 318 317 317 316 315 314 313 312 312 310 309 308 308 307 307 305 304 304 303 303 303 303 303 304 304 303 303 304 303 303
311 311 313 315 315 315 315 315 316 317 317 317 317 318 319 319 320 320 319 320 320 319 319 318 318 318 319 319 317 318 319 319 318 318 318 317 316 315 314 313 313 312 312 311 310 309 309 308 306 306 304 303 303 303 303 303 303 303 302 302 302 301 301
309 308 310 311 312 312 311 311 312 313 314 314 314 315 316 316 317 318 319 320 320 320 318 318 318 318 318 319 318 318 319 319 318 318 318 317 316 316 315 314 314 313 312 311 310 310 310 308 307 306 305 304 304 303 303 303 303 302 301 301 301 300 300
309 309 309 310 310 310 310 310 311 311 312 312 313 314 315 315 314 314 315 317 319 319 319 318 319 319 319 319 318 317 318 319 318 317 317 317 317 316 315 315 315 314 313 312 310 310 309 308 307 306 305 304 304 304 304 303 302 301 300 300 300 299 299
309 308 309 309 309 310 310 311 311 311 311 312 313 314 314 315 314 313 313 313 314 316 316 315 317 319 320 320 320 319 318 319 318 317 317 317 317 316 315 315 314 314 313 312 311 310 308 307 306 305 305 305 304 304 302 301 300 299 298 297 298 298 297
308 308 308 309 308 308 309 310 310 311 311 311 312 313 313 314 314 314 314 313 313 314 314 313 314 315 316 317 319 319 319 319 318 317 316 316 316 316 315 315 314 313 312 311 310 309 307 306 306 305 304 304 303 302 300 298 297 297 297 296 296 296 296
308 308 308 308 308 307 307 306 306 307 307 306 307 308 309 311 312 313 314 314 314 314 315 315 314 313 311 312 316 319 319 318 317 316 316 316 316 315 314 314 313 312 311 310 309 308 306 305 305 304 303 302 301 299 298 297 297 297 296 296 296 296 296
308 309 309 309 308 308 307 306 306 306 306 305 304 303 304 305 307 310 313 314 315 315 315 315 314 313 313 314 316 317 318 319 317 315 315 315 315 314 313 312 312 311 310 309 308 307 305 304 304 303 302 300 299 298 297 298 298 298 297 296 296 296 296
308 309 309 309 308 308 307 307 307 307 307 307 307 306 305 305 305 307 310 311 312 313 314 314 314 313 314 316 316 316 317 318 317 315 314 314 314 313 312 311 311 310 309 308 307 306 306 306 305 303 301 299 298 298 298 299 298 297 297 296 296 296 296
307 308 308 308 309 309 308 308 308 308 308 307 308 308 308 309 309 308 309 310 311 312 312 313 313 313 314 316 316 316 316 316 316 315 314 313 312 311 310 310 309 309 308 307 307 306 306 307 304 301 299 298 298 298 299 298 298 297 297 296 296 296 296
307 307 307 307 307 308 308 308 308 308 308 308 308 309 309 310 311 310 310 311 311 312 312 312 313 313 313 314 315 316 316 316 315 313 313 312 311 310 310 310 309 309 308 306 305 304 304 303 301 298 297 297 298 298 298 298 297 297 297 296 296 296 295
306 305 305 305 305 306 306 307 307 307 308 307 308 308 309 309 310 310 310 310 311 312 312 312 313 313 313 314 314 315 315 315 314 312 311 311 311 311 310 309 308 307 306 304 303 302 301 299 297 297 297 298 298 298 298 297 297 297 296 296 295 295 295
305 306 306 306 306 306 307 308 308 308 308 308 309 309 309 309 310 310 310 311 311 311 311 312 313 313 314 313 313 314 314 314 313 312 311 310 311 310 308 307 305 304 303 302 302 301 299 297 297 297 298 298 298 297 297 296 296 296 295 294 294 294 294
306 307 307 307 307 307 307 309 309 309 309 309 310 310 310 309 310 310 310 311 310 311 311 311 312 313 313 313 313 313 313 312 312 311 310 310 308 307 306 305 304 303 303 303 302 300 297 296 297 297 297 297 297 296 296 295 295 294 294 294 294 293 293
306 306 306 306 306 306 306 307 308 308 308 309 310 310 309 309 309 310 310 310 310 311 310 311 311 312 312 312 312 312 311 311 311 310 309 307 306 305 304 303 303 303 303 302 300 297 296 296 296 296 296 295 295 295 294 294 294 294 293 293 293 292 292
305 305 305 306 306 306 307 307 307 307 308 309 309 309 309 309 309 309 310 310 310 310 310 310 311 311 311 311 310 310 309 309 309 309 307 306 304 303 303 304 304 302 300 298 296 295 294 295 295 295 294 294 294 294 294 293 293 293 292 292 292 292 292
305 306 307 307 307 308 308 307 307 308 308 308 308 308 308 308 308 308 309 309 309 309 310 310 309 308 308 308 307 307 307 307 306 306 305 304 304 304 304 303 301 298 295 294 294 294 294 294 294 294 294 294 293 293 293 292 292 292 292 291 291 291 291

ECMWFFLT1_850_thetae_036.txt.gz
Theta_e
309 308 308 307 307 307 307 308 309 310 311 311 310 311 314 317 319 317 316 316 316 316 317 318 319 320 319 318 319 320 322 325 325 325 325 325 325 326 326 327 327 326 326 326 326 326 324 323 323 323 323 324 324 324 324 324 324 325 325 326 326 326 327
308 308 307 307 307 307 306 307 307 307 307 307 306 307 311 316 317 315 314 313 311 309 310 310 314 316 315 316 319 319 319 323 324 324 324 325 325 325 325 325 325 325 325 325 326 326 325 324 324 324 324 324 323 323 323 324 323 324 324 325 325 325 326
308 309 308 308 307 307 307 307 306 307 307 306 306 306 309 312 313 312 311 309 307 306 306 306 307 307 307 311 315 317 318 320 320 321 322 322 323 324 323 323 323 324 324 324 325 327 326 325 325 325 325 323 322 322 322 323 322 320 321 321 322 325 324
309 309 308 308 308 307 307 307 307 307 307 307 307 306 307 308 309 308 307 307 306 306 306 306 306 306 306 307 307 310 315 317 316 317 317 315 317 320 321 321 321 322 323 324 324 325 325 324 324 324 324 323 322 322 321 320 318 316 317 318 318 321 320
309 308 309 309 308 308 307 307 307 307 307 307 307 307 307 307 307 307 306 306 306 307 307 307 307 306 306 306 305 306 308 310 311 312 312 309 310 314 315 316 318 319 320 321 322 323 323 322 323 323 323 321 320 322 321 318 315 314 315 317 316 317 317
308 309 309 309 309 309 308 308 307 307 307 307 307 307 307 307 307 307 307 307 307 307 307 307 307 307 307 306 307 306 306 306 307 307 306 306 307 310 312 314 316 317 317 319 320 320 319 317 315 316 318 318 318 319 318 315 314 314 315 316 317 317 318
312 310 308 309 310 309 309 309 308 308 307 307 307 307 307 307 307 307 307 307 307 307 307 307 307 307 306 306 306 306 306 306 306 306 306 305 306 307 308 310 311 312 312 314 314 312 310 308 306 306 309 314 316 316 315 314 314 315 315 317 318 319 319
317 313 309 309 309 309 310 310 310 309 308 308 308 308 307 307 307 307 307 307 307 307 307 307 306 306 306 306 306 306 306 306 306 306 305 305 305 305 305 305 305 306 306 306 306 305 305 305 304 304 305 308 312 313 313 313 314 315 316 317 318 319 319
320 317 312 310 310 309 311 311 311 312 311 310 309 309 309 308 308 308 307 307 307 307 307 306 306 306 306 306 305 305 306 306 305 305 304 304 304 304 304 304 304 303 303 303 303 304 304 304 303 304 304 305 307 309 312 313 314 314 315 316 317 317 318
320 319 315 313 312 311 313 314 314 315 314 313 312 311 311 310 310 309 309 309 308 308 308 307 307 307 306 306 306 306 306 305 305 304 304 304 303 304 304 303 303 303 303 303 303 303 303 303 303 303 303 304 305 306 310 312 312 312 312 313 314 315 315
319 320 317 316 315 313 314 316 316 316 316 316 315 313 312 312 311 311 311 311 311 310 309 309 308 307 307 306 306 306 306 306 305 305 304 304 304 303 303 303 303 303 303 303 303 303 303 303 303 303 303 303 303 303 305 308 309 309 308 308 310 311 312
319 320 319 319 317 316 316 318 318 317 317 317 317 315 314 314 314 314 313 313 312 312 311 311 310 309 308 308 307 307 307 306 306 305 305 305 305 304 304 304 304 303 303 303 303 303 303 303 303 303 303 303 303 303 303 304 305 305 306 305 305 306 307
320 320 320 320 320 318 318 319 319 319 318 317 317 317 317 317 318 317 317 316 315 314 313 313 313 312 311 310 309 308 308 308 307 307 306 306 306 306 305 304 305 305 304 304 304 304 304 304 304 304 304 304 304 305 305 305 305 305 305 305 305 305 305
321 320 319 320 321 320 319 319 319 320 319 318 318 318 318 319 319 319 318 318 318 318 317 316 316 315 314 313 311 310 309 308 308 308 307 307 307 306 306 305 305 305 305 305 305 305 305 305 306 305 305 306 306 307 307 308 308 308 307 307 307 308 308
321 319 318 319 320 320 320 319 319 320 320 319 319 319 319 320 319 320 319 319 319 319 319 319 319 318 317 316 314 313 312 311 310 309 309 309 308 308 307 307 306 306 306 305 306 306 306 306 306 306 306 306 306 306 307 307 308 308 309 309 309 309 309
321 321 321 320 320 320 321 320 320 320 320 320 320 320 320 320 320 320 320 320 320 320 319 319 319 319 319 319 318 317 317 316 314 313 311 310 310 310 309 308 308 307 306 306 305 305 306 306 306 306 306 306 305 305 305 306 306 307 307 308 309 308 309
322 322 322 322 320 321 321 320 320 321 320 320 320 320 320 320 320 321 320 320 320 320 319 318 319 319 319 319 319 319 319 319 319 317 315 314 313 313 312 311 310 309 308 307 306 306 305 305 306 306 305 305 304 304 304 304 304 304 305 306 307 307 308
322 322 323 322 321 321 320 320 320 321 320 320 320 320 320 320 320 321 321 321 321 320 319 318 318 319 319 319 319 319 319 319 319 319 319 318 317 316 315 314 312 311 310 309 308 307 306 305 306 305 305 304 304 304 304 303 303 303 303 304 305 306 307
322 322 323 322 321 321 319 318 319 320 319 319 320 320 320 319 320 321 321 321 321 321 319 317 317 318 318 319 318 317 318 318 318 319 319 319 318 317 317 316 314 313 312 311 310 308 307 307 307 307 305 304 304 304 304 303 303 303 303 303 304 305 306
321 322 322 322 321 321 320 320 321 320 319 319 320 320 319 319 319 319 319 320 320 320 319 317 317 317 318 318 316 314 316 317 317 318 318 318 318 317 317 316 315 314 314 314 313 311 310 309 310 310 308 307 305 305 304 304 304 303 303 304 304 304 305
321 321 321 320 320 321 321 321 321 320 319 320 320 320 320 320 320 319 319 319 319 319 318 318 319 319 318 317 315 313 315 317 317 317 318 318 318 318 317 316 316 315 314 315 314 313 312 311 311 312 312 310 309 309 307 305 304 304 303 304 303 303 304
318 319 319 319 319 320 320 319 319 319 319 319 319 319 319 319 320 319 319 320 319 319 319 319 320 320 319 318 316 316 317 317 318 318 318 318 318 317 317 317 316 316 315 315 315 314 313 312 312 312 312 312 311 310 309 307 305 305 304 303 303 302 303
312 312 314 315 316 316 315 315 316 316 316 316 315 316 317 316 316 316 317 317 318 319 320 320 320 320 320 319 318 318 318 319 320 319 319 318 318 318 317 317 317 316 316 315 315 314 314 313 313 313 312 312 310 309 309 308 307 305 304 303 303 302 302
309 309 310 311 311 311 311 312 312 312 312 312 313 315 316 316 315 315 315 315 315 315 317 318 320 320 320 320 319 319 319 319 320 319 319 319 319 318 317 317 317 316 316 315 315 314 313 313 313 312 312 311 310 310 309 307 306 305 304 302 302 301 301
309 309 309 309 309 310 310 310 310 310 311 311 311 313 314 314 315 315 315 315 315 314 313 314 315 318 319 320 320 320 320 320 320 319 319 319 319 318 317 317 316 316 316 315 314 314 313 312 311 311 310 310 310 310 309 307 306 304 302 301 300 301 300
308 308 308 308 309 309 309 310 310 310 310 310 311 311 311 312 312 313 314 314 315 315 314 313 312 313 314 316 318 319 319 319 319 319 319 319 318 318 317 316 316 316 315 314 313 313 312 311 311 310 309 309 309 309 308 308 306 303 300 299 299 300 300
307 307 308 308 308 308 307 307 307 307 307 307 308 307 308 308 309 311 312 312 313 313 314 314 314 312 311 312 314 315 316 316 316 317 318 318 318 317 316 316 316 315 314 313 313 313 312 311 310 310 309 309 309 308 308 307 305 301 299 299 299 300 300
307 307 308 308 308 307 307 306 304 303 303 304 304 304 304 304 304 306 307 309 310 311 312 313 314 314 313 313 313 313 314 315 315 315 316 317 317 316 316 316 315 314 313 313 312 312 312 311 310 309 309 309 308 307 307 306 304 300 299 299 299 299 298
307 308 308 308 308 307 307 305 303 302 302 302 302 303 303 303 302 302 303 304 305 307 309 311 312 312 313 313 313 312 313 314 314 314 314 315 315 315 315 315 314 313 312 312 312 311 310 309 308 308 309 309 308 307 306 305 302 300 299 298 298 298 298
307 307 308 308 308 307 307 306 305 305 304 303 303 303 303 303 302 302 302 302 302 303 305 308 310 311 311 312 313 313 312 313 314 315 315 315 315 315 314 314 313 312 311 311 310 309 308 308 307 307 307 307 306 304 303 302 300 298 298 298 298 298 297
306 307 307 307 307 307 307 307 307 307 306 306 306 306 305 303 302 302 302 302 302 302 303 306 309 311 311 312 313 313 313 313 314 315 315 315 314 314 313 313 311 310 309 309 309 308 308 307 306 305 304 303 302 301 300 299 298 298 298 298 297 297 296
306 306 306 305 305 305 305 305 306 306 306 306 306 307 306 304 303 303 303 303 303 304 304 306 308 310 311 312 313 314 314 314 314 314 314 313 313 312 312 311 310 309 309 309 309 308 306 305 303 302 302 301 300 299 299 298 298 298 297 297 296 295 295
306 305 305 305 305 305 305 306 306 307 308 308 308 308 307 306 306 305 305 305 306 306 307 308 309 310 311 311 312 313 314 314 314 313 313 312 312 311 310 310 309 309 308 308 307 306 305 304 303 302 301 300 299 298 298 297 297 296 295 295 294 294 294
306 305 305 305 306 306 306 307 307 307 308 308 308 308 308 308 308 308 308 308 307 308 309 309 310 310 310 311 312 313 313 313 313 312 312 311 310 309 309 309 308 307 306 305 304 303 303 302 301 301 300 299 298 297 296 295 295 294 294 294 294 294 294
305 305 305 305 306 306 305 305 305 305 306 306 306 307 308 308 308 309 309 308 307 308 309 309 310 310 310 310 311 312 312 312 311 310 310 309 309 308 307 307 306 305 304 303 303 302 301 301 300 299 297 296 295 294 294 294 294 294 294 294 294 293 293
304 304 304 304 304 305 305 304 304 305 305 306 307 308 308 308 308 308 307 307 306 307 308 309 309 309 309 310 311 311 311 310 309 309 308 308 307 307 306 306 305 305 304 303 303 302 301 300 298 295 294 294 294 294 294 294 294 293 293 293 293 292 292
304 303 304 304 305 305 306 306 306 307 307 307 307 307 307 308 308 308 307 307 306 306 307 308 308 308 308 309 309 309 308 308 308 308 307 307 306 306 305 305 305 304 303 302 301 300 297 295 294 293 293 294 294 294 293 293 293 293 292 292 292 291 291

ECMWFFLT1_850_thetae_042.txt.gz
Theta_e
312 311 309 310 309 308 308 308 308 309 311 314 316 316 315 315 317 316 313 310 310 311 312 314 315 315 315 314 314 316 319 322 324 324 325 325 326 326 326 326 326 327 326 326 325 325 325 324 324 324 324 324 324 325 326 325 324 324 325 325 324 325 324
314 312 309 307 307 307 307 308 308 308 309 310 310 310 311 313 315 313 309 306 306 306 307 307 308 308 308 310 313 315 317 320 322 323 323 323 324 325 326 326 325 325 325 324 325 326 325 324 324 325 325 326 325 325 325 325 325 324 325 325 324 324 324
315 311 308 307 307 307 306 307 307 307 307 307 306 307 309 312 312 309 306 305 306 305 305 305 305 306 306 308 311 311 313 317 321 322 321 321 322 323 323 323 324 323 323 323 324 325 324 323 323 324 324 324 324 324 324 325 326 326 325 325 324 323 323
314 309 307 307 307 306 306 306 306 306 306 306 306 306 308 309 308 307 306 306 306 306 306 306 306 306 306 306 307 308 309 312 314 314 313 312 315 319 320 320 320 319 320 322 323 324 323 323 321 322 322 320 320 322 322 324 324 324 323 323 322 321 321
316 310 307 308 307 306 306 306 306 305 306 306 306 306 306 307 306 306 306 306 306 306 306 307 306 306 306 306 306 307 307 307 307 307 306 305 308 313 314 315 315 315 317 320 322 322 321 321 320 319 318 318 319 319 318 319 319 319 319 318 318 318 318
318 311 307 308 308 307 307 306 306 305 305 306 306 306 306 306 306 306 306 306 306 306 306 306 307 306 306 306 306 306 306 306 306 305 305 306 306 308 308 310 310 312 314 316 317 317 316 316 316 317 316 316 317 317 315 315 316 315 316 316 317 317 318
320 314 308 308 308 307 307 306 306 306 305 306 306 306 306 306 306 306 306 306 306 306 306 306 306 306 306 306 306 306 306 306 305 305 305 305 305 305 305 306 306 307 308 309 309 309 307 308 309 312 315 315 315 315 314 314 313 313 313 313 315 317 319
321 317 310 308 308 307 307 306 306 306 306 306 306 306 306 306 306 306 306 307 306 306 306 306 306 305 305 305 305 305 305 305 305 305 304 304 304 304 303 303 303 303 304 304 304 303 304 304 304 307 311 314 314 313 313 313 313 312 311 310 311 314 317
322 319 311 308 309 308 307 307 307 307 306 307 306 306 306 306 306 306 306 306 306 306 306 305 305 305 305 305 305 304 305 304 304 304 304 304 303 303 303 303 303 302 302 303 302 302 303 303 303 304 307 311 314 313 312 312 312 311 309 308 308 309 311
319 316 310 308 309 309 308 307 307 307 307 307 307 307 307 307 307 307 306 306 306 306 306 306 306 305 305 305 305 304 304 304 304 304 303 303 303 303 303 302 303 303 302 302 302 302 302 302 303 303 304 307 311 313 312 309 308 309 308 307 307 307 306
314 313 309 308 309 309 309 308 307 307 307 307 307 307 307 307 307 307 307 307 307 307 306 306 306 306 305 305 305 305 305 305 305 305 304 304 304 303 303 303 303 303 303 304 303 303 303 303 302 302 302 303 306 310 312 310 307 306 306 306 306 306 305
312 311 311 310 311 310 309 309 309 308 308 307 308 308 308 309 309 309 309 310 309 309 308 308 307 307 306 306 306 306 306 306 306 306 306 306 306 305 305 305 304 304 304 305 305 304 304 304 303 303 303 303 304 307 310 309 307 305 305 305 305 305 305
312 312 314 316 317 313 310 310 310 310 310 309 311 312 312 312 312 312 313 313 314 313 312 311 310 309 308 307 307 306 306 306 306 306 306 307 307 307 307 306 306 306 306 306 306 306 306 305 305 305 305 305 305 306 307 307 306 306 305 306 305 305 306
314 313 316 319 320 318 313 312 312 312 312 313 315 316 316 317 316 316 317 317 317 317 316 315 314 313 312 311 310 308 307 307 307 307 307 307 307 307 307 307 306 306 306 306 306 306 306 306 306 307 307 307 306 306 306 306 306 305 305 305 305 305 305
316 313 317 320 321 320 317 316 316 314 313 315 317 318 318 319 318 318 318 318 318 318 318 317 316 316 315 315 315 314 312 311 310 309 309 308 308 308 307 307 306 306 306 306 306 306 306 306 306 306 306 306 307 306 306 306 306 305 305 304 305 305 305
317 314 317 320 321 320 319 318 318 316 315 317 318 318 319 319 319 318 317 318 318 319 318 318 317 317 317 317 317 317 316 315 315 314 314 312 311 310 309 309 308 308 307 307 306 306 306 306 306 306 306 306 306 306 306 306 306 306 306 306 306 305 305
319 316 318 320 321 321 319 318 317 316 316 318 319 319 319 318 318 318 318 318 318 318 319 318 318 317 317 318 318 318 318 318 318 318 317 316 315 314 312 312 311 310 310 309 309 308 308 306 306 306 306 307 307 308 308 309 309 309 309 310 309 309 308
319 317 319 321 321 321 320 318 316 314 315 318 319 318 318 318 317 317 318 319 319 319 319 318 318 317 317 317 318 318 319 319 319 319 319 319 318 317 316 314 313 313 313 313 313 312 311 309 308 308 308 309 310 311 312 312 312 312 312 312 312 311 311
319 317 318 321 321 321 320 319 317 315 314 315 316 316 317 317 316 317 318 318 318 318 318 318 317 317 317 317 317 317 318 318 318 319 319 319 318 318 318 317 316 315 315 315 315 315 314 312 311 312 312 312 312 313 313 313 312 312 311 311 311 311 311
319 318 319 321 321 320 320 320 319 317 315 314 315 317 317 316 316 317 318 318 318 317 317 317 317 317 317 317 316 317 318 319 318 318 319 318 317 317 317 317 317 317 316 316 316 316 316 315 315 315 315 314 314 313 313 313 312 311 311 311 310 310 309
321 321 321 320 320 320 320 320 320 319 318 317 317 318 317 317 317 317 317 318 318 317 317 316 317 317 318 319 318 319 319 319 319 319 319 318 316 315 316 317 317 317 317 317 316 316 316 316 315 314 314 315 314 313 313 313 312 311 311 311 310 309 309
320 320 321 319 319 320 320 319 319 318 317 317 316 316 317 317 318 317 317 318 318 317 317 317 318 319 319 319 319 319 319 319 319 320 320 319 317 316 317 317 318 318 318 317 317 316 316 315 315 314 314 314 313 313 313 313 312 311 311 311 310 309 309
319 320 321 320 320 319 319 318 317 317 317 317 317 317 317 318 318 318 318 318 318 317 317 317 317 318 318 318 319 320 320 320 320 320 319 319 319 318 318 319 319 319 318 318 317 317 316 315 315 315 314 313 312 312 311 312 312 312 311 311 310 309 309
320 320 319 319 318 318 318 317 317 316 317 317 317 316 316 316 317 317 317 317 316 316 316 315 315 314 315 316 317 318 319 319 319 320 320 320 319 319 319 319 319 319 319 318 318 317 316 316 315 315 314 314 313 311 311 311 311 311 311 311 310 309 309
316 315 315 315 315 315 314 314 314 314 314 313 313 313 313 314 315 316 316 315 315 315 315 314 314 313 313 314 314 315 315 316 316 317 317 318 318 318 318 318 318 318 318 319 318 318 317 316 315 314 314 313 313 312 311 311 310 311 311 311 310 309 309
310 310 310 311 311 311 311 310 311 311 311 311 311 311 311 312 312 313 313 313 313 314 313 313 313 313 313 313 313 314 314 314 314 314 313 313 313 313 313 313 314 315 316 317 318 318 318 317 316 315 314 313 313 312 311 310 310 310 310 309 309 309 308
308 308 308 308 309 309 309 309 309 309 309 310 309 309 309 309 309 309 309 309 309 309 309 309 310 310 311 311 312 313 314 314 314 314 313 312 311 311 311 311 311 312 313 315 316 317 317 317 316 314 313 313 313 311 310 310 310 310 309 309 308 307 306
307 308 308 308 308 308 308 308 308 308 308 307 306 306 306 305 305 305 304 304 304 304 303 304 304 304 305 306 307 309 311 312 312 312 312 311 312 311 311 310 310 310 311 313 315 316 316 316 315 314 313 313 312 311 310 310 309 309 309 308 307 306 304
307 307 308 308 308 308 308 308 307 306 305 304 303 303 304 304 304 303 303 302 302 302 301 301 302 302 302 302 303 304 306 308 309 309 310 311 312 312 312 311 310 311 312 313 314 315 315 314 313 313 313 312 311 311 310 309 308 308 308 306 305 304 303
306 307 308 308 308 308 308 308 307 306 306 305 305 305 305 305 304 304 304 303 303 302 302 301 301 302 303 302 302 303 304 305 307 309 310 311 312 312 312 312 311 311 312 313 313 313 313 313 312 311 311 311 310 309 308 308 308 307 306 304 304 303 303
306 307 307 308 308 308 308 307 307 307 306 307 306 306 306 305 305 304 304 303 303 303 302 301 301 302 302 302 302 303 303 304 307 308 310 310 311 312 312 312 311 311 311 312 313 312 311 311 310 310 310 309 309 308 307 307 307 305 304 304 303 303 302
306 306 307 307 307 307 307 307 307 306 306 306 305 305 305 305 305 305 304 304 303 303 303 302 302 302 302 302 302 302 302 303 304 307 308 310 311 311 311 311 310 310 310 310 310 310 310 309 309 309 308 308 308 307 307 306 305 304 303 303 302 302 302
306 306 306 306 306 306 306 306 306 305 305 304 304 304 305 305 305 305 305 304 304 304 304 304 303 303 303 303 303 302 302 301 302 305 307 309 310 310 310 309 309 309 309 308 308 309 309 309 308 308 307 307 306 306 305 304 303 303 302 302 302 302 301
306 306 306 306 305 305 305 305 304 304 303 303 303 303 304 304 305 304 304 303 304 304 304 304 304 303 303 304 305 304 303 302 302 305 307 308 309 308 308 308 308 307 307 307 307 308 307 307 307 306 306 306 306 305 304 304 303 302 302 301 301 300 298
305 305 305 305 305 305 304 304 303 303 303 303 303 302 302 302 302 302 302 303 303 304 305 304 303 302 303 305 306 306 305 303 302 304 306 308 308 307 307 307 307 307 307 307 306 306 306 306 306 306 305 305 304 304 303 302 302 301 300 299 298 296 294
304 303 304 304 304 304 304 303 303 303 303 303 303 302 301 300 300 300 300 302 304 305 305 304 303 303 302 304 306 306 306 304 303 303 305 307 307 307 306 306 306 306 306 306 305 306 305 305 305 304 304 303 303 302 301 301 299 298 297 295 294 293 293
303 303 303 303 303 303 303 303 303 303 303 302 302 302 301 300 300 300 301 302 304 305 305 305 305 303 302 303 306 306 306 305 304 304 305 306 307 306 306 305 305 304 304 304 304 304 304 304 304 303 302 302 301 300 298 297 295 294 294 293 293 293 293

ECMWFFLT1_850_thetae_045.txt.gz
Theta_e
307 307 307 307 307 307 308 310 311 311 312 312 310 309 310 311 310 307 306 307 307 309 311 313 315 315 315 314 314 315 317 320 323 325 325 326 326 326 325 325 326 326 325 325 325 326 326 327 326 325 325 324 324 324 325 325 325 326 325 325 325 325 325
307 307 307 307 307 307 309 310 310 310 310 309 308 308 309 308 306 306 305 305 305 306 306 307 308 308 308 311 313 314 317 320 321 323 323 324 325 325 325 325 325 325 324 324 324 325 325 326 325 325 325 325 325 325 325 325 325 325 324 325 324 324 324
308 307 307 307 307 307 307 308 309 309 308 306 307 308 307 306 305 306 306 306 306 306 305 305 305 306 306 309 311 312 317 319 320 321 321 321 322 323 324 324 324 323 323 323 324 324 324 325 324 324 325 324 324 324 324 325 325 325 325 325 324 324 323
308 307 308 308 306 306 306 306 306 307 306 306 307 307 306 306 306 306 306 306 306 306 306 306 306 306 306 307 308 308 311 314 314 315 314 313 316 319 321 321 321 320 321 321 322 324 324 323 323 324 323 321 322 322 323 324 323 324 323 322 321 320 319
308 307 308 308 307 306 306 306 306 306 306 306 306 306 306 306 306 306 306 306 306 306 306 306 306 306 306 306 306 306 307 307 307 307 306 306 310 314 316 316 315 315 317 319 321 322 323 322 322 322 321 319 318 318 319 320 319 319 319 318 318 318 318
309 308 308 308 307 306 306 306 306 306 306 306 306 306 306 306 306 306 306 306 306 306 306 306 306 306 306 306 306 305 306 305 305 305 306 306 307 309 310 309 310 311 314 317 319 321 322 321 320 320 319 317 316 314 315 315 316 316 317 317 318 318 319
310 308 308 308 307 306 306 306 306 306 306 306 306 306 306 306 306 306 306 306 306 306 306 305 305 305 305 305 305 305 305 305 305 305 305 305 305 305 305 306 307 308 309 311 313 314 316 318 319 319 318 316 314 313 313 313 313 314 315 317 318 319 320
314 311 309 308 308 307 306 306 306 306 306 306 306 306 306 306 306 306 306 306 306 306 306 305 305 305 305 305 304 304 304 304 304 304 304 304 304 303 303 303 304 304 304 305 305 305 307 310 315 318 317 316 314 313 312 311 311 311 311 313 315 317 318
317 316 311 308 308 307 307 306 306 306 306 306 306 306 306 306 306 307 306 306 306 306 306 306 305 305 305 305 305 304 303 303 303 303 303 303 303 303 303 303 303 302 302 302 302 303 303 304 308 313 316 316 315 314 313 312 310 309 308 308 309 311 314
319 318 313 308 308 308 307 307 307 307 307 306 307 306 307 307 307 307 307 307 307 306 306 306 306 306 305 305 305 304 304 303 303 303 302 302 302 303 303 302 303 303 303 303 302 302 303 303 304 308 312 315 315 314 314 313 311 309 307 306 306 307 307
319 318 313 309 308 308 307 307 307 307 307 307 307 307 307 307 307 307 308 308 308 308 308 307 307 307 306 305 305 305 305 304 304 303 303 303 303 303 303 303 303 303 304 304 303 303 302 302 303 304 306 310 313 314 313 313 310 308 306 305 305 305 305
317 316 313 309 308 309 308 308 307 307 307 307 307 307 307 308 308 309 310 311 311 311 310 309 309 308 307 307 307 306 306 306 305 305 304 304 304 303 303 304 304 304 305 305 305 304 304 303 303 303 303 305 309 312 312 312 310 307 305 305 305 305 305
317 314 312 310 308 309 308 308 308 307 307 307 308 308 309 310 311 312 313 314 315 315 314 313 312 311 310 309 309 309 308 308 307 307 306 305 305 304 304 304 304 305 305 305 306 305 305 305 305 305 304 304 306 309 310 310 309 306 305 305 305 305 305
319 316 313 311 312 312 310 309 309 309 309 309 308 309 311 313 314 315 316 316 317 317 317 317 316 315 314 314 313 312 311 311 310 309 308 307 307 306 305 305 304 305 305 305 306 306 306 306 306 306 306 305 306 307 307 307 307 306 305 305 305 304 305
322 320 316 314 317 318 313 310 310 311 311 312 312 312 314 316 317 318 318 318 317 318 318 318 318 317 317 317 316 316 315 314 313 312 311 311 310 309 309 308 306 306 306 305 305 305 306 306 306 306 306 306 306 306 306 306 306 305 305 306 306 306 307
324 324 319 315 318 321 316 312 312 313 312 313 314 315 316 318 319 318 318 318 318 318 318 318 318 318 318 318 318 318 318 317 316 316 315 314 314 313 312 311 310 309 308 307 307 307 306 306 306 306 306 306 306 306 307 308 309 309 310 310 310 310 311
324 325 322 318 318 321 319 316 315 315 314 312 314 317 318 318 319 318 318 318 318 319 319 319 318 318 318 317 316 318 318 318 318 317 317 317 317 317 316 314 313 312 312 311 310 310 309 308 307 307 308 308 309 309 311 312 313 312 312 311 311 311 311
324 324 322 319 318 321 321 319 318 317 316 314 315 318 319 319 319 318 317 316 316 317 319 318 318 318 318 316 316 316 317 318 318 318 318 318 319 319 318 317 316 315 314 313 313 313 313 312 310 310 312 312 313 313 313 314 313 313 312 311 311 311 310
324 324 322 319 318 320 321 320 320 318 317 315 315 316 318 318 318 317 316 315 315 316 317 318 317 317 317 317 316 316 317 317 317 318 318 319 319 319 319 319 318 317 316 315 315 315 315 314 313 313 313 312 313 313 314 313 313 313 313 312 311 311 310
324 323 322 320 319 320 321 321 321 320 318 316 315 314 315 315 315 315 315 314 314 315 316 316 316 316 316 317 317 317 317 317 317 317 318 319 319 319 319 318 318 318 317 317 317 316 315 315 315 314 312 311 311 312 313 314 313 313 313 312 312 312 311
323 322 320 319 319 320 321 321 321 320 319 319 317 316 316 315 315 315 316 316 315 315 316 317 317 318 317 317 317 317 318 318 317 318 319 319 319 319 319 318 316 316 316 317 317 317 316 315 315 314 313 312 312 311 312 313 313 313 313 312 312 311 311
322 321 321 320 320 320 321 321 320 320 320 320 319 319 318 317 317 317 317 317 317 317 317 318 318 318 317 317 317 319 319 319 319 319 319 319 319 319 319 318 316 316 316 317 318 318 317 316 315 314 314 314 313 312 312 311 312 312 312 312 311 311 311
321 321 320 320 320 320 320 320 319 319 319 319 318 317 317 317 316 316 317 317 317 318 317 318 318 317 317 317 317 316 316 317 318 319 319 319 319 319 319 318 317 317 317 318 318 318 318 317 316 315 315 314 314 313 313 312 311 311 311 311 311 311 311
321 320 319 320 320 320 319 319 319 319 318 317 317 317 317 317 316 316 317 317 317 317 317 317 316 316 315 314 313 313 312 313 314 316 317 318 318 318 317 316 316 317 318 319 318 317 316 317 316 316 315 314 313 313 313 313 312 312 311 311 311 311 311
321 320 320 319 320 319 319 319 318 318 317 316 316 315 315 316 316 317 317 317 316 316 316 316 315 314 314 313 313 312 312 312 312 313 314 314 314 314 314 313 313 314 315 316 317 317 317 317 317 317 316 315 314 314 314 313 313 312 311 311 310 311 311
317 317 317 317 317 317 317 317 316 315 314 314 313 312 313 314 315 315 315 315 315 315 314 314 313 313 313 312 312 312 311 312 313 313 313 313 312 312 311 311 310 310 311 312 313 316 317 317 318 317 317 316 315 314 313 312 312 311 310 310 309 310 310
311 311 312 312 313 313 312 312 312 312 311 311 311 310 310 311 311 311 311 311 311 311 310 310 310 309 308 308 307 307 308 309 310 311 312 313 312 312 311 311 311 310 309 309 310 312 314 316 317 317 316 315 314 313 312 311 311 310 309 309 309 309 308
308 309 309 309 310 310 310 309 310 309 309 309 309 308 308 308 307 307 306 306 305 305 304 304 303 303 303 303 303 303 303 303 305 306 309 310 311 310 311 312 312 311 310 309 309 311 313 315 316 316 315 314 313 312 311 311 310 309 309 308 308 308 307
308 308 308 308 308 308 308 308 308 307 307 306 306 305 305 304 304 304 304 303 303 303 302 302 302 301 301 301 301 302 302 302 302 303 304 307 308 309 311 312 313 312 311 310 310 311 313 313 315 315 314 312 312 311 310 310 309 309 308 308 307 307 306
308 308 308 308 308 308 308 307 307 307 306 305 304 304 304 304 304 304 304 304 303 303 303 303 302 302 301 301 301 301 301 302 302 302 302 304 307 309 311 312 313 312 312 311 310 311 312 313 313 312 311 310 310 310 309 309 308 307 307 307 307 306 305
306 306 306 307 307 308 308 308 307 307 306 305 305 305 305 305 305 304 304 303 304 303 303 303 302 302 301 301 301 301 301 301 301 301 302 303 305 308 310 311 312 311 311 309 309 309 310 310 310 309 309 308 308 308 308 307 307 307 307 307 306 305 305
305 305 305 305 307 308 308 308 307 307 307 306 306 305 306 305 305 304 304 304 303 303 303 302 302 302 302 302 301 301 301 301 301 301 301 301 303 306 308 309 309 309 308 307 306 306 307 307 308 308 307 307 306 306 306 306 306 306 306 305 304 304 304
306 306 306 306 306 307 307 307 306 306 306 306 305 305 305 304 304 303 303 303 303 303 302 302 302 302 302 302 301 301 301 302 303 303 302 300 302 304 305 305 306 307 306 306 306 306 306 306 307 307 307 306 306 306 306 306 306 305 304 304 303 303 303
305 306 306 306 306 306 306 306 305 305 305 304 304 303 303 303 303 302 302 302 302 301 301 301 302 303 303 302 301 300 301 303 304 304 303 301 301 304 305 305 305 306 306 306 305 305 306 306 306 306 306 306 306 306 305 305 305 304 303 303 302 300 299
305 305 305 305 305 305 305 305 305 305 305 304 303 303 303 303 302 302 301 301 300 300 300 300 301 302 303 303 302 301 301 304 305 305 303 302 302 304 306 306 305 305 305 306 305 305 305 305 305 305 305 305 304 304 304 304 303 301 300 298 296 295 294
305 305 305 304 304 304 304 305 305 305 304 304 303 303 303 302 302 301 301 301 300 300 300 300 300 301 302 303 304 303 302 303 306 306 304 303 303 305 306 307 306 306 306 305 305 304 304 304 303 304 303 303 303 302 301 300 298 296 295 294 293 293 293
305 305 304 304 304 304 303 304 304 304 303 303 303 303 302 302 301 301 301 301 301 301 301 300 300 301 301 302 304 303 302 303 306 306 305 304 304 305 306 306 306 305 305 304 303 302 302 302 302 302 302 301 300 299 297 295 294 293 293 293 293 293 293

ECMWFFLT1_850_thetae_048.txt.gz
Theta_e
319 312 309 308 310 311 311 314 313 311 312 314 315 317 317 314 310 309 309 312 317 319 319 320 320 320 320 320 319 321 323 324 324 326 327 326 327 328 327 327 328 327 327 326 326 327 327 325 326 326 325 326 325 324 324 325 326 327 326 326 326 326 325
311 306 307 307 307 310 311 313 315 313 310 311 311 313 313 310 306 306 306 307 310 315 317 317 314 315 318 320 318 318 320 321 322 324 325 326 327 328 327 327 327 327 326 326 325 327 327 325 324 326 325 325 324 324 325 325 326 326 325 325 325 325 325
307 307 308 306 307 310 311 311 314 315 312 310 309 309 308 307 306 306 307 306 306 309 312 313 313 314 314 314 313 313 315 317 319 321 323 325 326 326 326 327 327 326 326 327 327 327 328 326 325 326 326 325 324 323 324 324 324 324 324 324 323 321 321
308 308 307 306 307 310 313 314 314 315 314 310 308 307 306 306 306 306 306 306 306 306 307 309 313 315 313 311 312 312 310 310 312 312 313 317 321 322 323 324 324 324 325 325 326 327 327 326 326 326 325 324 323 322 322 322 320 320 321 321 319 318 318
308 308 308 306 307 310 312 313 313 311 310 309 309 308 306 306 307 306 306 306 306 307 306 307 309 311 312 313 313 311 309 308 309 310 309 311 316 318 318 318 319 320 321 321 322 325 326 326 326 324 322 322 321 320 319 318 317 317 317 317 317 318 319
308 307 308 306 307 311 311 310 310 310 310 310 310 308 306 306 306 306 307 306 306 306 306 306 306 307 310 312 309 307 308 308 309 310 309 308 311 313 314 315 316 317 318 319 320 322 323 324 324 323 321 320 321 319 318 317 316 315 315 315 316 317 318
309 308 308 306 307 311 309 307 308 310 310 310 309 307 306 306 306 306 306 305 306 305 305 305 305 305 308 310 308 305 306 306 305 306 305 305 305 306 310 312 311 311 313 314 316 319 320 322 322 321 321 320 320 319 318 317 316 315 314 314 314 316 318
313 308 308 307 306 308 307 306 307 307 307 308 307 306 306 306 306 306 306 305 305 305 305 305 305 304 306 307 306 304 304 304 304 304 304 304 304 303 304 306 307 306 307 309 312 313 316 320 320 320 320 320 319 318 317 316 315 314 312 312 312 314 317
317 310 308 307 306 306 306 306 306 306 306 306 306 306 306 306 306 306 306 306 306 306 305 305 305 305 304 305 304 303 303 303 303 303 303 303 303 303 302 304 306 305 303 305 307 307 310 315 319 319 319 318 318 317 317 316 315 313 312 311 310 310 312
320 315 309 307 307 306 306 306 306 306 306 306 306 306 306 306 307 307 307 307 306 306 306 306 306 305 305 305 305 304 304 303 303 303 303 303 303 303 303 304 306 305 303 303 305 304 304 309 315 318 317 317 317 316 316 316 315 313 311 310 309 308 308
322 320 314 308 307 307 307 307 306 306 307 307 306 307 307 307 307 307 307 308 308 308 307 307 307 307 307 306 305 305 305 305 305 304 304 304 303 304 304 304 306 305 304 303 303 303 302 305 311 314 315 316 316 316 316 316 316 313 311 309 308 307 306
322 322 318 310 307 307 307 307 307 307 307 307 307 307 307 307 308 309 309 310 310 310 310 310 309 308 309 309 309 309 306 306 307 305 305 305 305 305 305 305 306 306 305 306 305 304 304 305 309 311 312 313 315 316 316 315 316 314 311 309 307 306 306
323 322 321 314 308 307 307 307 307 307 307 307 307 308 308 308 309 311 312 313 313 313 313 313 312 312 312 312 314 313 308 308 312 310 308 307 306 307 307 306 307 306 307 309 308 307 307 307 308 310 311 312 313 314 315 314 314 312 309 308 307 306 306
323 322 322 317 310 307 307 307 307 307 308 307 308 308 308 310 311 313 315 316 316 316 316 316 316 316 316 315 315 314 310 311 315 314 311 310 309 309 309 309 308 306 307 309 309 309 309 308 308 310 310 312 312 313 314 314 312 310 307 306 306 306 306
323 322 322 320 313 308 308 307 308 308 307 307 308 309 310 311 313 315 316 317 318 318 318 318 318 318 318 318 317 317 315 314 315 314 313 314 314 311 310 312 311 308 307 308 309 310 310 309 310 310 309 310 311 311 312 311 311 310 308 307 308 308 308
323 322 322 320 315 311 309 308 309 309 308 308 308 309 312 313 315 317 318 317 318 318 318 318 318 318 318 319 318 318 318 317 317 317 316 317 317 315 314 314 314 311 309 309 309 310 310 310 310 309 309 309 310 310 311 311 311 312 311 311 311 310 310
324 323 323 321 317 314 313 310 310 310 310 310 311 311 314 315 316 318 318 318 318 317 317 317 318 319 319 318 318 317 318 318 318 318 318 318 318 318 317 317 316 315 313 313 312 312 311 311 311 310 310 311 312 312 313 314 314 314 314 313 312 311 311
323 323 323 322 318 317 318 315 311 312 313 313 313 314 315 316 317 318 319 318 318 317 317 317 318 319 319 319 318 317 316 317 317 318 318 318 319 319 319 318 318 317 316 316 315 314 314 313 311 311 311 312 313 314 314 315 315 315 314 314 313 312 311
323 324 323 322 320 318 320 319 315 313 314 314 314 314 315 317 318 319 319 319 318 316 316 315 316 317 318 318 317 316 316 317 317 317 318 318 319 319 319 319 319 318 318 317 317 316 315 313 312 312 311 311 312 313 314 315 315 315 315 315 313 312 312
323 323 322 322 320 318 320 321 319 316 316 316 315 315 316 318 318 319 319 318 317 316 315 315 315 316 317 317 317 317 317 318 317 317 317 318 318 319 320 319 319 319 318 318 318 317 316 315 314 313 312 311 310 311 313 314 314 315 315 315 314 314 313
324 324 323 322 320 318 319 321 321 320 318 318 317 316 316 316 316 317 317 316 315 315 315 315 315 315 316 317 318 318 318 318 318 318 318 318 318 319 319 319 319 319 318 319 318 318 317 317 316 315 314 313 312 311 311 313 313 314 315 315 314 314 313
323 323 323 322 320 319 320 321 322 321 320 319 318 318 317 316 316 317 316 316 316 317 317 316 316 316 317 318 318 318 318 318 318 319 320 320 320 319 319 319 319 318 318 317 317 316 316 317 318 317 316 315 313 312 311 311 312 313 314 314 314 314 313
322 321 320 320 320 320 320 322 323 321 320 320 319 319 319 319 319 319 319 318 318 318 317 317 317 317 317 317 317 317 317 317 318 318 319 320 319 318 318 318 318 318 318 317 316 316 316 317 317 317 317 316 315 313 312 312 311 312 313 313 313 313 313
322 322 321 321 321 321 320 321 321 319 319 319 319 318 319 319 318 318 318 318 318 318 318 318 317 317 316 315 314 314 314 313 313 313 314 317 317 316 315 315 316 316 317 316 316 315 316 316 316 316 317 317 316 315 314 312 311 311 311 311 312 312 311
321 321 321 321 321 321 320 320 320 319 319 319 319 319 318 318 318 318 318 319 319 318 318 317 316 315 314 313 311 311 311 311 312 312 312 314 316 315 315 314 313 313 313 312 311 311 312 312 314 315 316 317 317 317 316 313 312 310 310 310 310 311 311
321 320 321 320 320 320 320 320 320 319 320 319 318 317 317 317 317 317 318 318 318 317 316 316 315 313 313 312 311 310 308 308 309 310 310 311 313 314 313 312 312 312 311 310 308 308 309 309 310 313 316 317 317 317 317 315 313 311 309 309 309 310 310
317 317 318 318 318 319 318 318 318 317 316 315 314 314 315 316 316 316 316 316 315 315 315 314 313 312 311 309 307 305 304 303 304 304 304 305 308 310 311 311 312 312 311 309 308 308 309 309 308 310 313 316 317 316 316 315 314 313 310 309 309 309 309
313 313 314 314 315 315 315 315 314 313 313 313 312 312 313 313 313 313 312 312 311 310 309 307 306 305 304 303 302 302 301 301 302 302 302 302 304 306 308 309 310 309 309 309 309 309 309 309 309 310 312 314 315 315 315 314 312 311 310 309 309 308 308
311 312 312 312 313 312 311 311 311 311 312 312 312 312 311 310 309 308 308 309 308 305 303 303 302 302 302 301 301 302 303 303 302 302 302 302 302 304 306 308 309 309 310 310 311 310 309 309 310 311 313 314 314 313 312 311 310 309 308 308 308 308 307
310 310 310 311 311 310 309 309 309 310 310 310 310 309 308 308 308 306 306 308 308 305 303 303 303 302 302 301 302 304 307 307 304 301 301 301 302 303 304 306 309 311 312 312 312 311 309 309 310 311 312 311 311 310 310 309 308 308 307 307 307 307 307
309 310 310 310 309 308 308 308 309 309 310 310 309 309 308 307 307 306 305 306 307 306 304 303 302 302 302 301 301 305 309 309 305 302 301 301 301 301 303 305 307 310 310 310 309 308 306 306 309 310 309 309 308 308 308 307 307 307 307 307 307 307 307
308 309 309 308 308 307 307 308 308 308 310 310 310 309 308 308 307 306 305 304 304 305 304 302 302 301 301 301 301 304 309 310 308 306 305 304 302 301 301 303 304 305 305 305 304 304 303 304 307 308 307 307 307 307 306 306 306 306 306 306 306 306 306
308 308 308 308 307 307 307 307 306 307 308 310 310 309 309 309 308 306 305 303 303 303 303 302 301 301 301 301 301 302 307 309 308 308 308 307 305 303 301 301 302 302 302 303 303 303 303 304 305 306 306 306 306 306 306 306 305 305 305 305 305 305 304
308 309 309 309 308 308 308 307 306 306 307 308 308 308 307 308 307 305 303 302 302 301 301 300 300 300 300 301 300 300 305 308 308 307 308 308 307 306 302 300 302 303 303 303 304 304 305 305 305 305 305 305 305 305 305 305 304 304 304 304 303 302 301
308 309 309 309 309 308 308 308 307 306 307 307 306 305 305 306 306 304 302 302 301 301 300 300 300 300 300 300 300 299 302 305 305 306 307 307 307 306 303 301 303 305 304 304 305 305 305 305 304 304 304 304 304 304 304 304 303 303 301 300 299 297 297
306 307 308 308 308 308 308 307 306 306 307 306 306 305 304 304 305 303 302 301 301 301 301 301 301 300 300 300 300 299 300 302 302 304 307 307 306 305 303 302 304 305 305 305 305 305 304 303 302 302 302 302 302 302 301 300 299 298 296 295 295 295 296
304 305 306 306 308 308 308 307 307 307 307 306 307 307 306 305 305 304 304 304 303 301 301 301 300 300 300 299 299 299 299 300 300 302 305 306 306 305 304 303 305 305 305 305 305 304 303 301 301 300 300 299 298 297 296 295 295 294 294 294 295 296 296